| time (UTC) | temp C | wind direction | speed KPH | gust KPH | rain 1hr cm | rain 24hr cm | rain mn cm | humidity % | barometer mb |
| 20260506035356 | 13 | 65 | 0.0 | 4.8 | 0.30 | 0.99 | 0.99 | 1 | 1008.7 |
| 20260506035319 | 13 | 65 | 1.6 | 9.7 | 0.30 | 0.99 | 0.99 | 1 | 1008.6 |
| 20260506035122 | 13 | 65 | 1.6 | 9.7 | 0.30 | 0.99 | 0.99 | 1 | 1008.5 |
| 20260506035045 | 13 | 65 | 0.0 | 9.7 | 0.30 | 0.99 | 0.99 | 1 | 1008.5 |
| 20260506034930 | 13 | 65 | 0.0 | 9.7 | 0.33 | 0.99 | 0.99 | 1 | 1008.5 |
| 20260506034855 | 13 | 65 | 0.0 | 9.7 | 0.33 | 0.99 | 0.99 | 1 | 1008.5 |
| 20260506034810 | 13 | 65 | 1.6 | 9.7 | 0.33 | 0.99 | 0.99 | 1 | 1008.4 |
| 20260506034640 | 13 | 75 | 3.2 | 9.7 | 0.33 | 0.99 | 0.99 | 1 | 1008.4 |
| 20260506034541 | 13 | 85 | 3.2 | 9.7 | 0.33 | 0.99 | 0.99 | 1 | 1008.5 |
| 20260506034411 | 13 | 103 | 0.0 | 6.4 | 0.30 | 0.97 | 0.97 | 1 | 1008.5 |
| 20260506034327 | 13 | 60 | 0.0 | 6.4 | 0.30 | 0.97 | 0.97 | 1 | 1008.5 |
| 20260506034137 | 13 | 60 | 0.0 | 6.4 | 0.30 | 0.97 | 0.97 | 1 | 1008.5 |
| 20260506034053 | 13 | 60 | 0.0 | 6.4 | 0.30 | 0.97 | 0.97 | 1 | 1008.5 |
| 20260506033923 | 13 | 60 | 3.2 | 6.4 | 0.30 | 0.97 | 0.97 | 1 | 1008.4 |
| 20260506033845 | 13 | 76 | 4.8 | 6.4 | 0.28 | 0.94 | 0.94 | 1 | 1008.4 |
| 20260506033629 | 13 | 77 | 3.2 | 6.4 | 0.28 | 0.94 | 0.94 | 1 | 1008.4 |
| 20260506033552 | 13 | 82 | 1.6 | 6.4 | 0.25 | 0.91 | 0.91 | 1 | 1008.4 |
| 20260506033435 | 13 | 88 | 4.8 | 6.4 | 0.28 | 0.91 | 0.91 | 1 | 1008.4 |
| 20260506033357 | 13 | 81 | 3.2 | 6.4 | 0.28 | 0.91 | 0.91 | 1 | 1008.4 |
| 20260506033320 | 13 | 85 | 1.6 | 6.4 | 0.25 | 0.89 | 0.89 | 1 | 1008.4 |
| 20260506033123 | 13 | 46 | 0.0 | 4.8 | 0.25 | 0.86 | 0.86 | 1 | 1008.4 |
| 20260506033038 | 13 | 46 | 0.0 | 4.8 | 0.25 | 0.86 | 0.86 | 1 | 1008.3 |
| 20260506032908 | 13 | 46 | 0.0 | 4.8 | 0.25 | 0.86 | 0.86 | 1 | 1008.3 |
| 20260506032830 | 13 | 46 | 0.0 | 4.8 | 0.25 | 0.86 | 0.86 | 1 | 1008.2 |
| 20260506032636 | 13 | 46 | 0.0 | 4.8 | 0.25 | 0.86 | 0.86 | 1 | 1008.0 |
| 20260506032600 | 13 | 46 | 1.6 | 4.8 | 0.25 | 0.86 | 0.86 | 1 | 1008.0 |
| 20260506032423 | 13 | 52 | 1.6 | 4.8 | 0.23 | 0.84 | 0.84 | 1 | 1008.1 |
| 20260506032339 | 13 | 53 | 0.0 | 0.0 | 0.20 | 0.81 | 0.81 | 1 | 1008.0 |
| 20260506032209 | 14 | 78 | 0.0 | 0.0 | 0.20 | 0.81 | 0.81 | 1 | 1008.1 |
| 20260506032131 | 14 | 65 | 0.0 | 0.0 | 0.20 | 0.81 | 0.81 | 1 | 1008.1 |
| 20260506031936 | 14 | 347 | 0.0 | 0.0 | 0.20 | 0.81 | 0.81 | 1 | 1008.1 |
| 20260506031838 | 14 | 347 | 0.0 | 0.0 | 0.20 | 0.81 | 0.81 | 1 | 1008.1 |
| 20260506031724 | 14 | 360 | 0.0 | 0.0 | 0.20 | 0.81 | 0.81 | 1 | 1008.0 |
| 20260506031647 | 14 | 49 | 0.0 | 0.0 | 0.20 | 0.81 | 0.81 | 1 | 1008.0 |
| 20260506031526 | 14 | 86 | 0.0 | 0.0 | 0.20 | 0.81 | 0.81 | 1 | 1008.0 |
| 20260506031429 | 14 | 86 | 0.0 | 1.6 | 0.20 | 0.81 | 0.81 | 1 | 1008.1 |
| 20260506031351 | 14 | 86 | 0.0 | 3.2 | 0.20 | 0.81 | 0.81 | 1 | 1008.1 |
| 20260506031313 | 14 | 86 | 0.0 | 4.8 | 0.20 | 0.81 | 0.81 | 1 | 1008.1 |
| 20260506031136 | 15 | 86 | 0.0 | 6.4 | 0.18 | 0.79 | 0.79 | 1 | 1008.1 |
| 20260506031058 | 15 | 86 | 0.0 | 6.4 | 0.18 | 0.79 | 0.79 | 1 | 1008.1 |
| 20260506030923 | 15 | 86 | 0.0 | 6.4 | 0.18 | 0.79 | 0.79 | 1 | 1008.1 |
| 20260506030845 | 15 | 86 | 0.0 | 6.4 | 0.18 | 0.79 | 0.79 | 1 | 1008.1 |
| 20260506030807 | 15 | 86 | 0.0 | 6.4 | 0.18 | 0.79 | 0.79 | 1 | 1008.0 |
| 20260506030711 | 15 | 86 | 1.6 | 6.4 | 0.18 | 0.79 | 0.79 | 1 | 1008.0 |
| 20260506030634 | 15 | 86 | 1.6 | 6.4 | 0.18 | 0.79 | 0.79 | 1 | 1008.0 |
| 20260506030437 | 15 | 86 | 4.8 | 6.4 | 0.15 | 0.76 | 0.76 | 1 | 1007.9 |
| 20260506030340 | 15 | 86 | 3.2 | 6.4 | 0.15 | 0.76 | 0.76 | 1 | 1007.9 |
| 20260506030224 | 15 | 142 | 1.6 | 3.2 | 0.13 | 0.74 | 0.74 | 1 | 1008.0 |
| 20260506030146 | 15 | 142 | 1.6 | 3.2 | 0.10 | 0.71 | 0.71 | 1 | 1008.0 |
| 20260506025931 | 15 | 142 | 1.6 | 6.4 | 0.08 | 0.69 | 0.69 | 1 | 1008.1 |
| 20260506025855 | 15 | 142 | 1.6 | 6.4 | 0.08 | 0.69 | 0.69 | 1 | 1008.1 |
| 20260506025738 | 15 | 217 | 3.2 | 6.4 | 0.08 | 0.69 | 0.69 | 1 | 1008.2 |
| 20260506025700 | 15 | 260 | 3.2 | 6.4 | 0.08 | 0.69 | 0.69 | 1 | 1008.2 |
| 20260506025615 | 15 | 277 | 1.6 | 6.4 | 0.08 | 0.69 | 0.69 | 1 | 1008.2 |
| 20260506025425 | 15 | 313 | 0.0 | 6.4 | 0.08 | 0.69 | 0.69 | 1 | 1008.0 |
| 20260506025348 | 15 | 313 | 1.6 | 6.4 | 0.08 | 0.69 | 0.69 | 1 | 1007.9 |
| 20260506025229 | 15 | 313 | 3.2 | 6.4 | 0.08 | 0.69 | 0.69 | 1 | 1007.9 |
| 20260506025152 | 15 | 34 | 3.2 | 6.4 | 0.08 | 0.69 | 0.69 | 1 | 1007.9 |
| 20260506024916 | 15 | 267 | 3.2 | 6.4 | 0.05 | 0.66 | 0.66 | 1 | 1007.9 |
| 20260506024851 | 15 | 267 | 3.2 | 6.4 | 0.05 | 0.66 | 0.66 | 1 | 1007.9 |
| 20260506024745 | 15 | 298 | 0.0 | 4.8 | 0.05 | 0.66 | 0.66 | 1 | 1007.7 |
| 20260506024646 | 15 | 336 | 0.0 | 6.4 | 0.05 | 0.66 | 0.66 | 1 | 1007.7 |
| 20260506024517 | 15 | 336 | 0.0 | 8.0 | 0.05 | 0.66 | 0.66 | 1 | 1007.5 |
| 20260506024430 | 15 | 336 | 0.0 | 8.0 | 0.05 | 0.66 | 0.66 | 1 | 1007.5 |
| 20260506024241 | 15 | 336 | 0.0 | 9.7 | 0.05 | 0.66 | 0.66 | 1 | 1007.5 |
| 20260506024203 | 15 | 336 | 1.6 | 9.7 | 0.05 | 0.66 | 0.66 | 1 | 1007.4 |
| 20260506023943 | 16 | 328 | 3.2 | 9.7 | 0.05 | 0.66 | 0.66 | 1 | 1007.4 |
| 20260506023813 | 16 | 34 | 4.8 | 9.7 | 0.05 | 0.66 | 0.66 | 1 | 1007.4 |
| 20260506023734 | 16 | 355 | 6.4 | 9.7 | 0.05 | 0.66 | 0.66 | 1 | 1007.3 |
| 20260506023539 | 16 | 341 | 4.8 | 11.3 | 0.05 | 0.66 | 0.66 | 1 | 1007.4 |
| 20260506023503 | 16 | 355 | 3.2 | 11.3 | 0.03 | 0.64 | 0.64 | 1 | 1007.4 |
| 20260506023406 | 16 | 204 | 3.2 | 11.3 | 0.03 | 0.64 | 0.64 | 1 | 1007.3 |
| 20260506023328 | 16 | 186 | 3.2 | 11.3 | 0.03 | 0.64 | 0.64 | 1 | 1007.1 |
| 20260506023132 | 15 | 228 | 4.8 | 11.3 | 0.00 | 0.61 | 0.61 | 1 | 1007.2 |
| 20260506023033 | 15 | 280 | 4.8 | 11.3 | 0.00 | 0.61 | 0.61 | 1 | 1007.3 |
| 20260506022937 | 15 | 296 | 4.8 | 11.3 | 0.00 | 0.61 | 0.61 | 1 | 1007.2 |
| 20260506022838 | 15 | 304 | 4.8 | 11.3 | 0.00 | 0.61 | 0.61 | 1 | 1007.1 |
| 20260506022708 | 15 | 254 | 3.2 | 11.3 | 0.00 | 0.61 | 0.61 | 1 | 1007.0 |
| 20260506022630 | 15 | 244 | 1.6 | 11.3 | 0.00 | 0.61 | 0.61 | 1 | 1007.0 |
| 20260506022436 | 15 | 277 | 3.2 | 11.3 | 0.00 | 0.61 | 0.61 | 1 | 1006.9 |
| 20260506022400 | 15 | 244 | 3.2 | 11.3 | 0.00 | 0.61 | 0.61 | 1 | 1006.9 |
| 20260506022243 | 15 | 267 | 3.2 | 6.4 | 0.00 | 0.61 | 0.61 | 1 | 1006.9 |
| 20260506022146 | 15 | 275 | 3.2 | 4.8 | 0.00 | 0.61 | 0.61 | 1 | 1006.9 |
| 20260506022031 | 15 | 241 | 3.2 | 4.8 | 0.00 | 0.61 | 0.61 | 1 | 1006.9 |
| 20260506021953 | 15 | 240 | 1.6 | 4.8 | 0.00 | 0.61 | 0.61 | 1 | 1006.8 |
| 20260506021835 | 15 | 220 | 1.6 | 4.8 | 0.00 | 0.61 | 0.61 | 1 | 1006.8 |
| 20260506021758 | 15 | 220 | 0.0 | 4.8 | 0.00 | 0.61 | 0.61 | 1 | 1006.8 |
| 20260506021720 | 15 | 220 | 0.0 | 4.8 | 0.00 | 0.61 | 0.61 | 1 | 1006.8 |
| 20260506021525 | 16 | 220 | 1.6 | 4.8 | 0.00 | 0.61 | 0.61 | 1 | 1006.8 |
| 20260506021447 | 16 | 220 | 0.0 | 4.8 | 0.00 | 0.61 | 0.61 | 1 | 1006.8 |
| 20260506021330 | 16 | 220 | 0.0 | 4.8 | 0.00 | 0.61 | 0.61 | 1 | 1006.7 |
| 20260506021250 | 16 | 220 | 1.6 | 4.8 | 0.00 | 0.61 | 0.61 | 1 | 1006.7 |
| 20260506021122 | 16 | 220 | 1.6 | 4.8 | 0.00 | 0.61 | 0.61 | 1 | 1006.6 |
| 20260506021038 | 16 | 206 | 1.6 | 4.8 | 0.00 | 0.61 | 0.61 | 1 | 1006.6 |
| 20260506020908 | 16 | 223 | 1.6 | 4.8 | 0.00 | 0.61 | 0.61 | 1 | 1006.5 |
| 20260506020831 | 16 | 223 | 1.6 | 4.8 | 0.00 | 0.61 | 0.61 | 1 | 1006.5 |
| 20260506020635 | 16 | 181 | 0.0 | 1.6 | 0.00 | 0.61 | 0.61 | 1 | 1006.5 |
| 20260506020539 | 16 | 181 | 0.0 | 3.2 | 0.00 | 0.61 | 0.61 | 1 | 1006.4 |
| 20260506020442 | 16 | 181 | 0.0 | 4.8 | 0.00 | 0.61 | 0.61 | 1 | 1006.4 |
| 20260506020408 | 16 | 181 | 0.0 | 4.8 | 0.00 | 0.61 | 0.61 | 1 | 1006.4 |
| 20260506020330 | 16 | 181 | 0.0 | 4.8 | 0.00 | 0.61 | 0.61 | 1 | 1006.4 |
| 20260506020132 | 16 | 181 | 0.0 | 4.8 | 0.00 | 0.61 | 0.61 | 1 | 1006.4 |
| 20260506020056 | 16 | 181 | 0.0 | 4.8 | 0.00 | 0.61 | 0.61 | 1 | 1006.4 |
| 20260506015938 | 16 | 181 | 0.0 | 4.8 | 0.00 | 0.61 | 0.61 | 1 | 1006.5 |
| 20260506015901 | 16 | 181 | 0.0 | 4.8 | 0.00 | 0.61 | 0.61 | 1 | 1006.5 |
| 20260506015817 | 16 | 181 | 1.6 | 4.8 | 0.00 | 0.61 | 0.61 | 1 | 1006.5 |
| 20260506015646 | 16 | 207 | 3.2 | 4.8 | 0.00 | 0.61 | 0.61 | 1 | 1006.5 |
| 20260506015548 | 16 | 207 | 3.2 | 4.8 | 0.00 | 0.61 | 0.61 | 1 | 1006.5 |
| 20260506015510 | 16 | 202 | 3.2 | 4.8 | 0.00 | 0.61 | 0.61 | 1 | 1006.6 |
| 20260506015353 | 16 | 202 | 3.2 | 4.8 | 0.00 | 0.61 | 0.61 | 1 | 1006.6 |
| 20260506015320 | 16 | 200 | 3.2 | 4.8 | 0.00 | 0.61 | 0.61 | 1 | 1006.5 |
| 20260506015124 | 16 | 167 | 1.6 | 8.0 | 0.00 | 0.61 | 0.61 | 1 | 1006.5 |
| 20260506015027 | 16 | 178 | 1.6 | 8.0 | 0.00 | 0.61 | 0.61 | 1 | 1006.5 |
| 20260506014931 | 16 | 178 | 1.6 | 8.0 | 0.00 | 0.61 | 0.61 | 1 | 1006.5 |
| 20260506014853 | 16 | 178 | 3.2 | 8.0 | 0.00 | 0.61 | 0.61 | 1 | 1006.5 |
| 20260506014722 | 16 | 178 | 1.6 | 8.0 | 0.00 | 0.61 | 0.61 | 1 | 1006.5 |
| 20260506014615 | 16 | 137 | 1.6 | 8.0 | 0.00 | 0.61 | 0.61 | 1 | 1006.5 |
| 20260506014426 | 16 | 136 | 4.8 | 8.0 | 0.00 | 0.61 | 0.61 | 1 | 1006.6 |
| 20260506014348 | 16 | 151 | 4.8 | 8.0 | 0.00 | 0.61 | 0.61 | 1 | 1006.7 |
| 20260506014232 | 16 | 163 | 6.4 | 8.0 | 0.00 | 0.61 | 0.61 | 1 | 1006.7 |
| 20260506014156 | 16 | 189 | 4.8 | 8.0 | 0.00 | 0.61 | 0.61 | 1 | 1006.7 |
| 20260506014059 | 16 | 132 | 3.2 | 8.0 | 0.00 | 0.61 | 0.61 | 1 | 1006.7 |
| 20260506013923 | 16 | 181 | 3.2 | 8.0 | 0.00 | 0.61 | 0.61 | 1 | 1006.6 |
| 20260506013839 | 16 | 174 | 1.6 | 8.0 | 0.00 | 0.61 | 0.61 | 1 | 1006.7 |
| 20260506013708 | 16 | 144 | 1.6 | 8.0 | 0.00 | 0.61 | 0.61 | 1 | 1006.7 |
| 20260506013630 | 16 | 144 | 3.2 | 8.0 | 0.00 | 0.61 | 0.61 | 1 | 1006.6 |
| 20260506013434 | 16 | 134 | 4.8 | 8.0 | 0.00 | 0.61 | 0.61 | 1 | 1006.7 |
| 20260506013357 | 16 | 144 | 4.8 | 8.0 | 0.00 | 0.61 | 0.61 | 1 | 1006.7 |
| 20260506013240 | 16 | 163 | 4.8 | 9.7 | 0.00 | 0.61 | 0.61 | 1 | 1006.7 |
| 20260506013207 | 16 | 161 | 4.8 | 9.7 | 0.00 | 0.61 | 0.61 | 1 | 1006.7 |
| 20260506013130 | 16 | 154 | 4.8 | 9.7 | 0.00 | 0.61 | 0.61 | 1 | 1006.6 |
| 20260506012932 | 16 | 178 | 4.8 | 9.7 | 0.00 | 0.61 | 0.61 | 1 | 1006.5 |
| 20260506012855 | 16 | 161 | 4.8 | 9.7 | 0.00 | 0.61 | 0.61 | 1 | 1006.5 |
| 20260506012758 | 16 | 167 | 6.4 | 9.7 | 0.00 | 0.61 | 0.61 | 1 | 1006.6 |
| 20260506012720 | 16 | 157 | 6.4 | 9.7 | 0.00 | 0.61 | 0.61 | 1 | 1006.5 |
| 20260506012550 | 16 | 160 | 6.4 | 9.7 | 0.00 | 0.61 | 0.61 | 1 | 1006.5 |
| 20260506012444 | 16 | 154 | 6.4 | 9.7 | 0.00 | 0.61 | 0.61 | 1 | 1006.5 |
| 20260506012315 | 16 | 217 | 4.8 | 9.7 | 0.00 | 0.61 | 0.61 | 1 | 1006.4 |
| 20260506012236 | 16 | 163 | 3.2 | 9.7 | 0.00 | 0.61 | 0.61 | 1 | 1006.4 |
| 20260506012106 | 16 | 196 | 4.8 | 9.7 | 0.00 | 0.61 | 0.61 | 1 | 1006.4 |
| 20260506012022 | 16 | 236 | 6.4 | 9.7 | 0.00 | 0.61 | 0.61 | 1 | 1006.3 |
| 20260506011837 | 16 | 230 | 3.2 | 9.7 | 0.00 | 0.61 | 0.61 | 1 | 1006.2 |
| 20260506011750 | 16 | 232 | 3.2 | 6.4 | 0.00 | 0.61 | 0.61 | 1 | 1006.2 |
| 20260506011621 | 16 | 192 | 4.8 | 6.4 | 0.00 | 0.61 | 0.61 | 1 | 1006.0 |
| 20260506011542 | 16 | 234 | 3.2 | 6.4 | 0.00 | 0.61 | 0.61 | 1 | 1005.9 |
| 20260506011405 | 16 | 247 | 3.2 | 6.4 | 0.00 | 0.61 | 0.61 | 1 | 1005.8 |
| 20260506011327 | 16 | 247 | 3.2 | 6.4 | 0.00 | 0.61 | 0.61 | 1 | 1005.6 |
| 20260506011138 | 16 | 242 | 1.6 | 6.4 | 0.00 | 0.61 | 0.61 | 1 | 1005.5 |
| 20260506011031 | 16 | 215 | 3.2 | 6.4 | 0.00 | 0.61 | 0.61 | 1 | 1005.6 |
| 20260506010955 | 16 | 215 | 3.2 | 6.4 | 0.00 | 0.61 | 0.61 | 1 | 1005.6 |
| 20260506010858 | 16 | 227 | 1.6 | 6.4 | 0.00 | 0.61 | 0.61 | 1 | 1005.6 |
| 20260506010744 | 16 | 209 | 1.6 | 6.4 | 0.00 | 0.61 | 0.61 | 1 | 1005.6 |
| 20260506010648 | 16 | 194 | 3.2 | 6.4 | 0.00 | 0.61 | 0.61 | 1 | 1005.7 |
| 20260506010529 | 16 | 178 | 3.2 | 4.8 | 0.00 | 0.61 | 0.61 | 1 | 1005.6 |
| 20260506010433 | 16 | 163 | 3.2 | 4.8 | 0.00 | 0.61 | 0.61 | 1 | 1005.5 |
| 20260506010355 | 16 | 134 | 3.2 | 4.8 | 0.00 | 0.61 | 0.61 | 1 | 1005.6 |
| 20260506010201 | 16 | 187 | 3.2 | 4.8 | 0.00 | 0.61 | 0.61 | 1 | 1005.6 |
| 20260506010105 | 16 | 187 | 3.2 | 8.0 | 0.00 | 0.61 | 0.61 | 1 | 1005.6 |
| 20260506010019 | 16 | 187 | 3.2 | 8.0 | 0.00 | 0.61 | 0.61 | 1 | 1005.6 |
| 20260506005830 | 16 | 190 | 1.6 | 8.0 | 0.00 | 0.61 | 0.61 | 1 | 1005.7 |
| 20260506005730 | 16 | 222 | 1.6 | 8.0 | 0.00 | 0.61 | 0.61 | 1 | 1005.7 |
| 20260506005616 | 16 | 254 | 3.2 | 8.0 | 0.00 | 0.61 | 0.61 | 1 | 1005.7 |
| 20260506005551 | 16 | 254 | 3.2 | 8.0 | 0.00 | 0.61 | 0.61 | 1 | 1005.7 |
| 20260506005249 | 16 | 232 | 4.8 | 8.0 | 0.00 | 0.61 | 0.61 | 1 | 1005.6 |
| 20260506005132 | 16 | 208 | 3.2 | 8.0 | 0.00 | 0.61 | 0.61 | 1 | 1005.6 |
| 20260506005032 | 16 | 248 | 3.2 | 8.0 | 0.00 | 0.61 | 0.61 | 1 | 1005.6 |
| 20260506004957 | 16 | 210 | 3.2 | 8.0 | 0.00 | 0.61 | 0.61 | 1 | 1005.6 |
| 20260506004823 | 16 | 242 | 4.8 | 9.7 | 0.00 | 0.61 | 0.61 | 1 | 1005.6 |
| 20260506004739 | 16 | 269 | 4.8 | 11.3 | 0.00 | 0.61 | 0.61 | 1 | 1005.6 |
| 20260506004641 | 16 | 216 | 4.8 | 11.3 | 0.00 | 0.61 | 0.61 | 1 | 1005.6 |
| 20260506004543 | 16 | 193 | 4.8 | 11.3 | 0.00 | 0.61 | 0.61 | 1 | 1005.6 |
| 20260506004444 | 16 | 238 | 4.8 | 11.3 | 0.00 | 0.61 | 0.61 | 1 | 1005.6 |
| 20260506004313 | 16 | 213 | 3.2 | 11.3 | 0.00 | 0.61 | 0.61 | 1 | 1005.5 |
| 20260506004227 | 16 | 217 | 3.2 | 11.3 | 0.00 | 0.61 | 0.61 | 1 | 1005.5 |
| 20260506004056 | 16 | 193 | 4.8 | 11.3 | 0.00 | 0.61 | 0.61 | 1 | 1005.5 |
| 20260506003957 | 16 | 193 | 4.8 | 11.3 | 0.00 | 0.61 | 0.61 | 1 | 1005.5 |
| 20260506003820 | 16 | 189 | 4.8 | 9.7 | 0.00 | 0.61 | 0.61 | 1 | 1005.5 |
| 20260506003746 | 16 | 196 | 6.4 | 9.7 | 0.00 | 0.61 | 0.61 | 1 | 1005.5 |
| 20260506003617 | 16 | 213 | 4.8 | 9.7 | 0.00 | 0.61 | 0.61 | 1 | 1005.5 |
| 20260506003540 | 16 | 182 | 3.2 | 9.7 | 0.00 | 0.61 | 0.61 | 1 | 1005.4 |
| 20260506003403 | 16 | 181 | 3.2 | 9.7 | 0.00 | 0.61 | 0.61 | 1 | 1005.4 |
| 20260506003336 | 16 | 192 | 3.2 | 9.7 | 0.00 | 0.61 | 0.61 | 1 | 1005.4 |
| 20260506003205 | 16 | 201 | 4.8 | 9.7 | 0.00 | 0.61 | 0.61 | 1 | 1005.4 |
| 20260506003120 | 16 | 223 | 4.8 | 9.7 | 0.00 | 0.61 | 0.61 | 1 | 1005.4 |
| 20260506002950 | 16 | 137 | 6.4 | 9.7 | 0.00 | 0.61 | 0.61 | 1 | 1005.5 |
| 20260506002852 | 16 | 189 | 6.4 | 9.7 | 0.00 | 0.61 | 0.61 | 1 | 1005.5 |
| 20260506002807 | 16 | 190 | 4.8 | 12.9 | 0.00 | 0.61 | 0.61 | 1 | 1005.5 |
| 20260506002635 | 16 | 165 | 3.2 | 12.9 | 0.00 | 0.61 | 0.61 | 1 | 1005.5 |
| 20260506002537 | 16 | 177 | 3.2 | 12.9 | 0.00 | 0.61 | 0.61 | 1 | 1005.6 |
| 20260506002323 | 16 | 126 | 3.2 | 12.9 | 0.00 | 0.61 | 0.61 | 1 | 1005.5 |
| 20260506002247 | 16 | 171 | 3.2 | 12.9 | 0.00 | 0.61 | 0.61 | 1 | 1005.5 |
| 20260506002150 | 16 | 158 | 6.4 | 12.9 | 0.00 | 0.61 | 0.61 | 1 | 1005.5 |
| 20260506002029 | 16 | 191 | 8.0 | 12.9 | 0.00 | 0.61 | 0.61 | 1 | 1005.5 |
| 20260506001934 | 16 | 156 | 8.0 | 12.9 | 0.00 | 0.61 | 0.61 | 1 | 1005.5 |
| 20260506001855 | 16 | 159 | 4.8 | 9.7 | 0.00 | 0.61 | 0.61 | 1 | 1005.4 |
| 20260506001756 | 16 | 207 | 6.4 | 9.7 | 0.00 | 0.61 | 0.61 | 1 | 1005.4 |
| 20260506001638 | 16 | 198 | 6.4 | 11.3 | 0.00 | 0.61 | 0.61 | 1 | 1005.4 |
| 20260506001601 | 16 | 242 | 6.4 | 11.3 | 0.00 | 0.61 | 0.61 | 1 | 1005.4 |
| 20260506001516 | 16 | 199 | 4.8 | 9.7 | 0.00 | 0.61 | 0.61 | 1 | 1005.3 |
| 20260506001329 | 16 | 180 | 4.8 | 9.7 | 0.00 | 0.61 | 0.61 | 1 | 1005.4 |
| 20260506001255 | 16 | 177 | 4.8 | 11.3 | 0.00 | 0.61 | 0.61 | 1 | 1005.4 |
| 20260506001215 | 16 | 179 | 3.2 | 11.3 | 0.00 | 0.61 | 0.61 | 1 | 1005.4 |
| 20260506001137 | 16 | 200 | 3.2 | 11.3 | 0.00 | 0.61 | 0.61 | 1 | 1005.3 |
| 20260506001030 | 16 | 185 | 4.8 | 11.3 | 0.00 | 0.61 | 0.61 | 1 | 1005.3 |
| 20260506000840 | 16 | 165 | 4.8 | 11.3 | 0.00 | 0.61 | 0.61 | 1 | 1005.4 |
| 20260506000742 | 16 | 202 | 4.8 | 11.3 | 0.00 | 0.61 | 0.61 | 1 | 1005.3 |
| 20260506000646 | 16 | 195 | 6.4 | 11.3 | 0.00 | 0.61 | 0.61 | 1 | 1005.4 |
| 20260506000528 | 16 | 192 | 8.0 | 11.3 | 0.00 | 0.61 | 0.61 | 1 | 1005.4 |
| 20260506000430 | 16 | 198 | 8.0 | 11.3 | 0.00 | 0.61 | 0.61 | 1 | 1005.3 |
| 20260506000324 | 16 | 196 | 6.4 | 11.3 | 0.00 | 0.61 | 0.61 | 1 | 1005.3 |
| 20260506000227 | 16 | 235 | 4.8 | 11.3 | 0.00 | 0.61 | 0.61 | 1 | 1005.3 |
| 20260506000128 | 16 | 223 | 6.4 | 11.3 | 0.00 | 0.61 | 0.61 | 1 | 1005.2 |
| 20260506000029 | 16 | 225 | 6.4 | 11.3 | 0.00 | 0.61 | 0.61 | 1 | 1005.2 |
| 20260505235832 | 16 | 216 | 4.8 | 11.3 | 0.00 | 0.61 | 0.61 | 1 | 1005.0 |
| 20260505235733 | 16 | 194 | 6.4 | 11.3 | 0.00 | 0.61 | 0.61 | 1 | 1005.0 |
| 20260505235614 | 16 | 225 | 8.0 | 11.3 | 0.00 | 0.61 | 0.61 | 1 | 1005.0 |
| 20260505235536 | 16 | 215 | 6.4 | 12.9 | 0.00 | 0.61 | 0.61 | 1 | 1005.1 |
| 20260505235323 | 16 | 207 | 6.4 | 11.3 | 0.00 | 0.61 | 0.61 | 1 | 1005.0 |
| 20260505235223 | 16 | 225 | 6.4 | 11.3 | 0.00 | 0.61 | 0.61 | 1 | 1005.1 |
| 20260505235126 | 16 | 212 | 6.4 | 11.3 | 0.00 | 0.61 | 0.61 | 1 | 1005.2 |
| 20260505235049 | 16 | 189 | 6.4 | 11.3 | 0.00 | 0.61 | 0.61 | 1 | 1005.2 |
| 20260505235011 | 16 | 229 | 6.4 | 11.3 | 0.00 | 0.61 | 0.61 | 1 | 1005.2 |
| 20260505234835 | 16 | 181 | 6.4 | 11.3 | 0.00 | 0.61 | 0.61 | 1 | 1005.2 |
| 20260505234737 | 16 | 196 | 4.8 | 11.3 | 0.00 | 0.61 | 0.61 | 1 | 1005.1 |
| 20260505234629 | 16 | 197 | 4.8 | 11.3 | 0.00 | 0.61 | 0.61 | 1 | 1005.0 |
| 20260505234550 | 16 | 199 | 4.8 | 11.3 | 0.00 | 0.61 | 0.61 | 1 | 1005.0 |
| 20260505234515 | 16 | 216 | 6.4 | 11.3 | 0.00 | 0.61 | 0.61 | 1 | 1005.0 |
| 20260505234419 | 16 | 172 | 6.4 | 11.3 | 0.00 | 0.61 | 0.61 | 1 | 1005.0 |
| 20260505234340 | 16 | 133 | 6.4 | 11.3 | 0.00 | 0.61 | 0.61 | 1 | 1005.1 |
| 20260505234201 | 16 | 190 | 3.2 | 11.3 | 0.00 | 0.61 | 0.61 | 1 | 1005.2 |
| 20260505234013 | 16 | 185 | 3.2 | 11.3 | 0.00 | 0.61 | 0.61 | 1 | 1005.3 |
| 20260505233928 | 16 | 211 | 4.8 | 11.3 | 0.00 | 0.61 | 0.61 | 1 | 1005.3 |
| 20260505233850 | 16 | 217 | 4.8 | 11.3 | 0.00 | 0.61 | 0.61 | 1 | 1005.3 |
| 20260505233632 | 16 | 217 | 6.4 | 11.3 | 0.00 | 0.61 | 0.61 | 1 | 1005.3 |
| 20260505233533 | 16 | 189 | 6.4 | 11.3 | 0.00 | 0.61 | 0.61 | 1 | 1005.3 |
| 20260505233441 | 16 | 191 | 6.4 | 12.9 | 0.00 | 0.61 | 0.61 | 1 | 1005.2 |
| 20260505233404 | 16 | 171 | 6.4 | 12.9 | 0.00 | 0.61 | 0.61 | 1 | 1005.2 |
| 20260505233325 | 16 | 178 | 6.4 | 12.9 | 0.00 | 0.61 | 0.61 | 1 | 1005.2 |
| 20260505233156 | 16 | 209 | 6.4 | 12.9 | 0.00 | 0.61 | 0.61 | 1 | 1005.2 |
| 20260505233028 | 16 | 180 | 6.4 | 12.9 | 0.00 | 0.61 | 0.61 | 1 | 1005.1 |
| 20260505232952 | 16 | 177 | 6.4 | 12.9 | 0.00 | 0.61 | 0.61 | 1 | 1005.1 |
| 20260505232854 | 16 | 186 | 6.4 | 9.7 | 0.00 | 0.61 | 0.61 | 1 | 1005.0 |
| 20260505232736 | 16 | 183 | 4.8 | 9.7 | 0.00 | 0.61 | 0.61 | 1 | 1005.0 |
| 20260505232650 | 16 | 188 | 4.8 | 9.7 | 0.00 | 0.61 | 0.61 | 1 | 1005.0 |
| 20260505232611 | 16 | 167 | 4.8 | 9.7 | 0.00 | 0.61 | 0.61 | 1 | 1004.9 |
| 20260505232512 | 16 | 193 | 4.8 | 9.7 | 0.00 | 0.61 | 0.61 | 1 | 1004.9 |
| 20260505232421 | 16 | 189 | 4.8 | 9.7 | 0.00 | 0.61 | 0.61 | 1 | 1004.9 |
| 20260505232322 | 16 | 209 | 4.8 | 9.7 | 0.00 | 0.61 | 0.61 | 1 | 1005.0 |
| 20260505232134 | 16 | 160 | 4.8 | 9.7 | 0.00 | 0.61 | 0.61 | 1 | 1005.0 |
| 20260505232048 | 16 | 198 | 4.8 | 9.7 | 0.00 | 0.61 | 0.61 | 1 | 1005.0 |
| 20260505231918 | 16 | 183 | 4.8 | 9.7 | 0.00 | 0.61 | 0.61 | 1 | 1005.0 |
| 20260505231841 | 16 | 211 | 4.8 | 9.7 | 0.00 | 0.61 | 0.61 | 1 | 1005.0 |
| 20260505231642 | 16 | 232 | 1.6 | 8.0 | 0.00 | 0.61 | 0.61 | 1 | 1004.9 |
| 20260505231542 | 16 | 232 | 1.6 | 8.0 | 0.00 | 0.61 | 0.61 | 1 | 1004.9 |
| 20260505231448 | 16 | 232 | 1.6 | 8.0 | 0.00 | 0.61 | 0.61 | 1 | 1004.8 |
| 20260505231348 | 16 | 214 | 1.6 | 8.0 | 0.00 | 0.61 | 0.61 | 1 | 1004.8 |
| 20260505231219 | 16 | 209 | 1.6 | 8.0 | 0.00 | 0.61 | 0.61 | 1 | 1004.8 |
| 20260505231138 | 16 | 209 | 3.2 | 9.7 | 0.00 | 0.61 | 0.61 | 1 | 1004.8 |
| 20260505231008 | 16 | 171 | 4.8 | 9.7 | 0.00 | 0.61 | 0.61 | 1 | 1004.8 |
| 20260505230930 | 16 | 178 | 3.2 | 9.7 | 0.00 | 0.61 | 0.61 | 1 | 1004.8 |
| 20260505230733 | 16 | 225 | 4.8 | 9.7 | 0.00 | 0.61 | 0.61 | 1 | 1004.7 |
| 20260505230634 | 16 | 213 | 4.8 | 9.7 | 0.00 | 0.61 | 0.61 | 1 | 1004.7 |
| 20260505230537 | 16 | 232 | 4.8 | 9.7 | 0.00 | 0.61 | 0.61 | 1 | 1004.7 |
| 20260505230459 | 16 | 215 | 4.8 | 9.7 | 0.00 | 0.61 | 0.61 | 1 | 1004.7 |
| 20260505230422 | 16 | 215 | 4.8 | 12.9 | 0.00 | 0.61 | 0.61 | 1 | 1004.7 |
| 20260505230223 | 16 | 212 | 3.2 | 12.9 | 0.00 | 0.61 | 0.61 | 1 | 1004.7 |
| 20260505230146 | 16 | 229 | 3.2 | 12.9 | 0.00 | 0.61 | 0.61 | 1 | 1004.7 |
| 20260505230034 | 16 | 182 | 4.8 | 12.9 | 0.00 | 0.61 | 0.61 | 1 | 1004.6 |
| 20260505225957 | 16 | 194 | 4.8 | 12.9 | 0.00 | 0.61 | 0.61 | 1 | 1004.6 |
| 20260505225913 | 16 | 211 | 4.8 | 12.9 | 0.00 | 0.61 | 0.61 | 1 | 1004.6 |
| 20260505225732 | 16 | 221 | 6.4 | 12.9 | 0.00 | 0.61 | 0.61 | 1 | 1004.6 |
| 20260505225633 | 16 | 225 | 6.4 | 12.9 | 0.00 | 0.61 | 0.61 | 1 | 1004.6 |
| 20260505225435 | 16 | 125 | 4.8 | 8.0 | 0.00 | 0.61 | 0.61 | 1 | 1004.7 |
| 20260505225359 | 16 | 168 | 3.2 | 8.0 | 0.00 | 0.61 | 0.61 | 1 | 1004.7 |
| 20260505225222 | 16 | 178 | 3.2 | 8.0 | 0.00 | 0.61 | 0.61 | 1 | 1004.7 |
| 20260505225138 | 16 | 206 | 4.8 | 8.0 | 0.00 | 0.61 | 0.61 | 1 | 1004.7 |
| 20260505224950 | 16 | 172 | 3.2 | 9.7 | 0.00 | 0.61 | 0.61 | 1 | 1004.7 |
| 20260505224911 | 16 | 180 | 3.2 | 11.3 | 0.00 | 0.61 | 0.61 | 1 | 1004.7 |
| 20260505224742 | 16 | 190 | 4.8 | 12.9 | 0.00 | 0.61 | 0.61 | 1 | 1004.7 |
| 20260505224637 | 16 | 234 | 4.8 | 12.9 | 0.00 | 0.61 | 0.61 | 1 | 1004.7 |
| 20260505224506 | 16 | 218 | 3.2 | 12.9 | 0.00 | 0.61 | 0.61 | 1 | 1004.7 |
| 20260505224429 | 16 | 184 | 3.2 | 12.9 | 0.00 | 0.61 | 0.61 | 1 | 1004.7 |
| 20260505224232 | 16 | 238 | 6.4 | 12.9 | 0.00 | 0.61 | 0.61 | 1 | 1004.7 |
| 20260505224155 | 16 | 209 | 6.4 | 12.9 | 0.00 | 0.61 | 0.61 | 1 | 1004.7 |
| 20260505224100 | 16 | 228 | 6.4 | 12.9 | 0.00 | 0.61 | 0.61 | 1 | 1004.7 |
| 20260505224022 | 16 | 219 | 6.4 | 12.9 | 0.00 | 0.61 | 0.61 | 1 | 1004.7 |
| 20260505223834 | 16 | 217 | 6.4 | 11.3 | 0.00 | 0.61 | 0.61 | 1 | 1004.6 |
| 20260505223730 | 16 | 190 | 6.4 | 11.3 | 0.00 | 0.61 | 0.61 | 1 | 1004.5 |
| 20260505223654 | 16 | 233 | 4.8 | 11.3 | 0.00 | 0.61 | 0.61 | 1 | 1004.5 |
| 20260505223539 | 16 | 246 | 4.8 | 11.3 | 0.00 | 0.61 | 0.61 | 1 | 1004.5 |
| 20260505223459 | 16 | 244 | 3.2 | 9.7 | 0.00 | 0.61 | 0.61 | 1 | 1004.5 |
| 20260505223341 | 16 | 198 | 4.8 | 9.7 | 0.00 | 0.61 | 0.61 | 1 | 1004.5 |
| 20260505223244 | 16 | 248 | 4.8 | 9.7 | 0.00 | 0.61 | 0.61 | 1 | 1004.5 |
| 20260505223120 | 16 | 246 | 3.2 | 14.5 | 0.00 | 0.61 | 0.61 | 1 | 1004.4 |
| 20260505223034 | 16 | 252 | 3.2 | 14.5 | 0.00 | 0.61 | 0.61 | 1 | 1004.5 |
| 20260505222959 | 16 | 229 | 4.8 | 14.5 | 0.00 | 0.61 | 0.61 | 1 | 1004.4 |
| 20260505222807 | 16 | 252 | 4.8 | 14.5 | 0.00 | 0.61 | 0.61 | 1 | 1004.4 |
| 20260505222721 | 16 | 248 | 4.8 | 14.5 | 0.00 | 0.61 | 0.61 | 1 | 1004.3 |
| 20260505222551 | 16 | 188 | 6.4 | 14.5 | 0.00 | 0.61 | 0.61 | 1 | 1004.4 |
| 20260505222453 | 16 | 224 | 8.0 | 14.5 | 0.00 | 0.61 | 0.61 | 1 | 1004.5 |
| 20260505222236 | 16 | 238 | 6.4 | 14.5 | 0.00 | 0.61 | 0.61 | 1 | 1004.6 |
| 20260505222138 | 16 | 165 | 4.8 | 11.3 | 0.00 | 0.61 | 0.61 | 1 | 1004.6 |
| 20260505222041 | 16 | 225 | 6.4 | 11.3 | 0.00 | 0.61 | 0.61 | 1 | 1004.6 |
| 20260505222002 | 16 | 207 | 6.4 | 11.3 | 0.00 | 0.61 | 0.61 | 1 | 1004.6 |
| 20260505221833 | 16 | 219 | 6.4 | 11.3 | 0.00 | 0.61 | 0.61 | 1 | 1004.8 |
| 20260505221727 | 16 | 204 | 6.4 | 11.3 | 0.00 | 0.61 | 0.61 | 1 | 1004.9 |
| 20260505221542 | 16 | 229 | 6.4 | 11.3 | 0.00 | 0.61 | 0.61 | 1 | 1005.1 |
| 20260505221457 | 16 | 210 | 6.4 | 11.3 | 0.00 | 0.61 | 0.61 | 1 | 1005.1 |
| 20260505221327 | 16 | 202 | 4.8 | 11.3 | 0.00 | 0.61 | 0.61 | 1 | 1005.1 |
| 20260505221227 | 16 | 196 | 4.8 | 11.3 | 0.00 | 0.61 | 0.61 | 1 | 1005.1 |
| 20260505221029 | 16 | 175 | 4.8 | 11.3 | 0.00 | 0.61 | 0.61 | 1 | 1005.0 |
| 20260505220952 | 16 | 197 | 6.4 | 11.3 | 0.00 | 0.61 | 0.61 | 1 | 1005.0 |
| 20260505220834 | 16 | 201 | 6.4 | 11.3 | 0.00 | 0.61 | 0.61 | 1 | 1004.9 |
| 20260505220757 | 16 | 232 | 4.8 | 14.5 | 0.00 | 0.61 | 0.61 | 1 | 1004.9 |
| 20260505220606 | 16 | 207 | 6.4 | 17.7 | 0.00 | 0.61 | 0.61 | 1 | 1004.9 |
| 20260505220442 | 16 | 189 | 4.8 | 17.7 | 0.00 | 0.61 | 0.61 | 1 | 1004.9 |
| 20260505220325 | 16 | 223 | 4.8 | 17.7 | 0.00 | 0.61 | 0.61 | 1 | 1004.9 |
| 20260505220247 | 16 | 211 | 4.8 | 17.7 | 0.00 | 0.61 | 0.61 | 1 | 1004.9 |
| 20260505220117 | 16 | 227 | 6.4 | 17.7 | 0.00 | 0.61 | 0.61 | 1 | 1004.7 |
| 20260505220033 | 16 | 223 | 6.4 | 17.7 | 0.00 | 0.61 | 0.61 | 1 | 1004.7 |
| 20260505215842 | 16 | 144 | 9.7 | 17.7 | 0.00 | 0.61 | 0.61 | 1 | 1004.6 |
| 20260505215757 | 16 | 181 | 8.0 | 17.7 | 0.00 | 0.61 | 0.61 | 1 | 1004.6 |
| 20260505215626 | 16 | 213 | 4.8 | 11.3 | 0.00 | 0.61 | 0.61 | 1 | 1004.5 |
| 20260505215527 | 16 | 155 | 4.8 | 11.3 | 0.00 | 0.61 | 0.61 | 1 | 1004.4 |
| 20260505215330 | 16 | 231 | 4.8 | 9.7 | 0.00 | 0.61 | 0.61 | 1 | 1004.4 |
| 20260505215255 | 16 | 201 | 3.2 | 9.7 | 0.00 | 0.61 | 0.61 | 1 | 1004.4 |
| 20260505215158 | 16 | 208 | 4.8 | 9.7 | 0.03 | 0.61 | 0.61 | 1 | 1004.4 |
| 20260505215100 | 16 | 207 | 4.8 | 11.3 | 0.03 | 0.61 | 0.61 | 1 | 1004.4 |
| 20260505215022 | 16 | 188 | 4.8 | 9.7 | 0.03 | 0.61 | 0.61 | 1 | 1004.3 |
| 20260505214826 | 16 | 207 | 3.2 | 9.7 | 0.10 | 0.61 | 0.61 | 1 | 1004.3 |
| 20260505214727 | 16 | 217 | 4.8 | 9.7 | 0.13 | 0.61 | 0.61 | 1 | 1004.4 |
| 20260505214630 | 16 | 203 | 4.8 | 9.7 | 0.18 | 0.61 | 0.61 | 1 | 1004.4 |
| 20260505214550 | 16 | 199 | 4.8 | 16.1 | 0.25 | 0.61 | 0.61 | 1 | 1004.3 |
| 20260505214451 | 16 | 236 | 6.4 | 16.1 | 0.25 | 0.61 | 0.61 | 1 | 1004.3 |
| 20260505214336 | 16 | 181 | 6.4 | 16.1 | 0.25 | 0.61 | 0.61 | 1 | 1004.4 |
| 20260505214302 | 16 | 207 | 6.4 | 16.1 | 0.25 | 0.61 | 0.61 | 1 | 1004.4 |
| 20260505214216 | 16 | 182 | 6.4 | 16.1 | 0.25 | 0.61 | 0.61 | 1 | 1004.4 |
| 20260505214026 | 16 | 229 | 6.4 | 17.7 | 0.25 | 0.61 | 0.61 | 1 | 1004.4 |
| 20260505213941 | 16 | 214 | 6.4 | 17.7 | 0.25 | 0.61 | 0.61 | 1 | 1004.3 |
| 20260505213810 | 16 | 218 | 8.0 | 17.7 | 0.28 | 0.61 | 0.61 | 1 | 1004.3 |
| 20260505213731 | 16 | 218 | 6.4 | 17.7 | 0.30 | 0.61 | 0.61 | 1 | 1004.3 |
| 20260505213535 | 16 | 221 | 6.4 | 17.7 | 0.43 | 0.61 | 0.61 | 1 | 1004.1 |
| 20260505213459 | 16 | 211 | 6.4 | 17.7 | 0.43 | 0.61 | 0.61 | 1 | 1004.1 |
| 20260505213404 | 16 | 94 | 6.4 | 17.7 | 0.43 | 0.61 | 0.61 | 1 | 1004.2 |
| 20260505213324 | 16 | 171 | 4.8 | 17.7 | 0.43 | 0.61 | 0.61 | 1 | 1004.2 |
| 20260505213139 | 16 | 240 | 3.2 | 8.0 | 0.43 | 0.61 | 0.61 | 1 | 1004.2 |
| 20260505213032 | 16 | 260 | 4.8 | 6.4 | 0.43 | 0.61 | 0.61 | 1 | 1004.3 |
| 20260505212956 | 16 | 233 | 3.2 | 6.4 | 0.43 | 0.61 | 0.61 | 1 | 1004.3 |
| 20260505212900 | 16 | 242 | 3.2 | 8.0 | 0.43 | 0.61 | 0.61 | 1 | 1004.3 |
| 20260505212822 | 16 | 199 | 3.2 | 8.0 | 0.43 | 0.61 | 0.61 | 1 | 1004.3 |
| 20260505212626 | 16 | 171 | 1.6 | 6.4 | 0.43 | 0.61 | 0.61 | 1 | 1004.3 |
| 20260505212528 | 16 | 171 | 1.6 | 6.4 | 0.43 | 0.61 | 0.61 | 1 | 1004.4 |
| 20260505212431 | 16 | 170 | 3.2 | 9.7 | 0.43 | 0.61 | 0.61 | 1 | 1004.4 |
| 20260505212354 | 16 | 201 | 3.2 | 9.7 | 0.43 | 0.61 | 0.61 | 1 | 1004.4 |
| 20260505212316 | 16 | 201 | 3.2 | 9.7 | 0.43 | 0.61 | 0.61 | 1 | 1004.4 |
| 20260505212151 | 16 | 223 | 3.2 | 9.7 | 0.43 | 0.61 | 0.61 | 1 | 1004.4 |
| 20260505212024 | 16 | 210 | 3.2 | 9.7 | 0.43 | 0.61 | 0.61 | 1 | 1004.4 |
| 20260505211946 | 16 | 183 | 3.2 | 9.7 | 0.43 | 0.61 | 0.61 | 1 | 1004.4 |
| 20260505211850 | 16 | 150 | 3.2 | 9.7 | 0.43 | 0.61 | 0.61 | 1 | 1004.3 |
| 20260505211751 | 16 | 138 | 3.2 | 9.7 | 0.43 | 0.61 | 0.61 | 1 | 1004.3 |
| 20260505211622 | 16 | 164 | 3.2 | 8.0 | 0.43 | 0.61 | 0.61 | 1 | 1004.4 |
| 20260505211537 | 16 | 152 | 1.6 | 8.0 | 0.43 | 0.61 | 0.61 | 1 | 1004.4 |
| 20260505211407 | 16 | 175 | 3.2 | 8.0 | 0.43 | 0.61 | 0.61 | 1 | 1004.4 |
| 20260505211330 | 16 | 175 | 3.2 | 8.0 | 0.43 | 0.61 | 0.61 | 1 | 1004.4 |
| 20260505211132 | 16 | 154 | 3.2 | 8.0 | 0.43 | 0.61 | 0.61 | 1 | 1004.4 |
| 20260505211056 | 16 | 167 | 3.2 | 8.0 | 0.43 | 0.61 | 0.61 | 1 | 1004.4 |
| 20260505210943 | 16 | 192 | 4.8 | 8.0 | 0.43 | 0.61 | 0.61 | 1 | 1004.4 |
| 20260505210846 | 16 | 197 | 4.8 | 8.0 | 0.43 | 0.61 | 0.61 | 1 | 1004.4 |
| 20260505210729 | 16 | 207 | 4.8 | 8.0 | 0.43 | 0.61 | 0.61 | 1 | 1004.4 |
| 20260505210649 | 16 | 159 | 4.8 | 9.7 | 0.43 | 0.61 | 0.61 | 1 | 1004.4 |
| 20260505210459 | 16 | 165 | 1.6 | 8.0 | 0.43 | 0.61 | 0.61 | 1 | 1004.3 |
| 20260505210414 | 16 | 167 | 1.6 | 8.0 | 0.43 | 0.61 | 0.61 | 1 | 1004.3 |
| 20260505210224 | 16 | 121 | 3.2 | 8.0 | 0.43 | 0.61 | 0.61 | 1 | 1004.2 |
| 20260505210138 | 16 | 152 | 3.2 | 6.4 | 0.43 | 0.61 | 0.61 | 1 | 1004.3 |
| 20260505210008 | 17 | 175 | 1.6 | 14.5 | 0.43 | 0.61 | 0.61 | 1 | 1004.2 |
| 20260505205930 | 17 | 175 | 1.6 | 14.5 | 0.43 | 0.61 | 0.61 | 1 | 1004.1 |
| 20260505205735 | 17 | 192 | 1.6 | 14.5 | 0.43 | 0.61 | 0.61 | 1 | 1004.2 |
| 20260505205659 | 17 | 153 | 3.2 | 14.5 | 0.43 | 0.61 | 0.61 | 1 | 1004.2 |
| 20260505205603 | 17 | 175 | 3.2 | 14.5 | 0.43 | 0.61 | 0.61 | 1 | 1004.3 |
| 20260505205442 | 17 | 129 | 4.8 | 14.5 | 0.43 | 0.61 | 0.61 | 1 | 1004.3 |
| 20260505205346 | 17 | 151 | 8.0 | 14.5 | 0.43 | 0.61 | 0.61 | 1 | 1004.4 |
| 20260505205227 | 17 | 144 | 8.0 | 14.5 | 0.43 | 0.61 | 0.61 | 1 | 1004.4 |
| 20260505205141 | 17 | 163 | 6.4 | 14.5 | 0.41 | 0.58 | 0.58 | 1 | 1004.4 |
| 20260505205044 | 17 | 198 | 3.2 | 9.7 | 0.41 | 0.58 | 0.58 | 1 | 1004.4 |
| 20260505204926 | 17 | 132 | 3.2 | 9.7 | 0.36 | 0.53 | 0.53 | 1 | 1004.0 |
| 20260505204828 | 17 | 209 | 1.6 | 16.1 | 0.30 | 0.48 | 0.48 | 1 | 1004.1 |
| 20260505204750 | 17 | 126 | 3.2 | 16.1 | 0.30 | 0.48 | 0.48 | 1 | 1004.1 |
| 20260505204709 | 17 | 125 | 4.8 | 16.1 | 0.28 | 0.46 | 0.46 | 1 | 1004.2 |
| 20260505204632 | 17 | 196 | 6.4 | 16.1 | 0.20 | 0.38 | 0.38 | 1 | 1004.4 |
| 20260505204515 | 17 | 206 | 6.4 | 16.1 | 0.18 | 0.36 | 0.36 | 1 | 1004.3 |
| 20260505204437 | 17 | 169 | 4.8 | 16.1 | 0.18 | 0.36 | 0.36 | 1 | 1004.2 |
| 20260505204307 | 17 | 184 | 4.8 | 16.1 | 0.18 | 0.36 | 0.36 | 1 | 1004.2 |
| 20260505204223 | 17 | 243 | 4.8 | 16.1 | 0.18 | 0.36 | 0.36 | 1 | 1004.1 |
| 20260505204033 | 17 | 140 | 11.3 | 17.7 | 0.18 | 0.36 | 0.36 | 1 | 1004.2 |
| 20260505203947 | 17 | 171 | 9.7 | 16.1 | 0.15 | 0.33 | 0.33 | 1 | 1004.2 |
| 20260505203822 | 18 | 175 | 9.7 | 22.5 | 0.15 | 0.33 | 0.33 | 1 | 1004.0 |
| 20260505203723 | 18 | 130 | 9.7 | 22.5 | 0.13 | 0.30 | 0.30 | 1 | 1004.0 |
| 20260505203529 | 18 | 175 | 8.0 | 22.5 | 0.00 | 0.18 | 0.18 | 1 | 1004.1 |
| 20260505203431 | 18 | 140 | 9.7 | 22.5 | 0.00 | 0.18 | 0.18 | 2 | 1004.1 |
| 20260505203333 | 18 | 190 | 11.3 | 22.5 | 0.03 | 0.18 | 0.18 | 4 | 1004.0 |
| 20260505203256 | 18 | 136 | 11.3 | 22.5 | 0.03 | 0.18 | 0.18 | 7 | 1004.0 |
| 20260505203125 | 18 | 192 | 11.3 | 22.5 | 0.03 | 0.18 | 0.18 | 9 | 1003.8 |
| 20260505203037 | 18 | 165 | 8.0 | 20.9 | 0.03 | 0.18 | 0.18 | 11 | 1003.7 |
| 20260505202906 | 18 | 150 | 6.4 | 19.3 | 0.03 | 0.18 | 0.18 | 10 | 1003.7 |
| 20260505202803 | 18 | 159 | 8.0 | 19.3 | 0.03 | 0.18 | 0.18 | 10 | 1003.7 |
| 20260505202627 | 19 | 115 | 8.0 | 19.3 | 0.03 | 0.18 | 0.18 | 13 | 1003.9 |
| 20260505202542 | 19 | 169 | 9.7 | 19.3 | 0.03 | 0.18 | 0.18 | 16 | 1003.9 |
| 20260505202411 | 19 | 158 | 12.9 | 19.3 | 0.03 | 0.18 | 0.18 | 11 | 1004.0 |
| 20260505202335 | 19 | 181 | 9.7 | 19.3 | 0.03 | 0.18 | 0.18 | 4 | 1004.1 |
| 20260505202136 | 19 | 233 | 3.2 | 16.1 | 0.03 | 0.18 | 0.18 | 3 | 1003.9 |
| 20260505202100 | 19 | 259 | 4.8 | 16.1 | 0.03 | 0.18 | 0.18 | 4 | 1003.9 |
| 20260505202003 | 19 | 239 | 6.4 | 16.1 | 0.03 | 0.18 | 0.18 | 4 | 1003.9 |
| 20260505201904 | 19 | 270 | 8.0 | 16.1 | 0.03 | 0.18 | 0.18 | 7 | 1003.9 |
| 20260505201838 | 19 | 272 | 6.4 | 14.5 | 0.03 | 0.18 | 0.18 | 7 | 1003.7 |
| 20260505201637 | 19 | 256 | 8.0 | 14.5 | 0.03 | 0.18 | 0.18 | 16 | 1003.1 |
| 20260505201542 | 19 | 242 | 8.0 | 16.1 | 0.03 | 0.18 | 0.18 | 14 | 1003.0 |
| 20260505201446 | 19 | 242 | 8.0 | 16.1 | 0.05 | 0.18 | 0.18 | 14 | 1002.9 |
| 20260505201328 | 19 | 163 | 8.0 | 16.1 | 0.13 | 0.18 | 0.18 | 13 | 1002.8 |
| 20260505201241 | 19 | 155 | 8.0 | 16.1 | 0.13 | 0.18 | 0.18 | 11 | 1002.8 |
| 20260505201144 | 19 | 186 | 8.0 | 17.7 | 0.15 | 0.18 | 0.18 | 6 | 1002.8 |
| 20260505201037 | 19 | 196 | 6.4 | 16.1 | 0.15 | 0.18 | 0.18 | 3 | 1003.0 |
| 20260505200924 | 19 | 218 | 4.8 | 16.1 | 0.15 | 0.18 | 0.18 | 4 | 1003.0 |
| 20260505200844 | 19 | 142 | 8.0 | 16.1 | 0.15 | 0.18 | 0.18 | 9 | 1003.0 |
| 20260505200714 | 19 | 188 | 8.0 | 16.1 | 0.15 | 0.18 | 0.18 | 7 | 1002.9 |
| 20260505200605 | 18 | 183 | 8.0 | 16.1 | 0.15 | 0.18 | 0.18 | 4 | 1002.9 |
| 20260505200414 | 18 | 161 | 6.4 | 14.5 | 0.15 | 0.18 | 0.18 | 1 | 1003.0 |
| 20260505200336 | 18 | 155 | 4.8 | 14.5 | 0.15 | 0.18 | 0.18 | 1 | 1003.0 |
| 20260505200138 | 18 | 200 | 4.8 | 16.1 | 0.15 | 0.18 | 0.18 | 1 | 1002.8 |
| 20260505200005 | 18 | 167 | 4.8 | 16.1 | 0.15 | 0.18 | 0.18 | 1 | 1002.8 |
| 20260505195926 | 18 | 132 | 4.8 | 16.1 | 0.15 | 0.18 | 0.18 | 1 | 1002.8 |
| 20260505195738 | 18 | 165 | 6.4 | 16.1 | 0.15 | 0.18 | 0.18 | 1 | 1003.0 |
| 20260505195622 | 18 | 182 | 4.8 | 17.7 | 0.15 | 0.18 | 0.18 | 1 | 1003.0 |
| 20260505195547 | 18 | 232 | 4.8 | 17.7 | 0.15 | 0.18 | 0.18 | 1 | 1003.0 |
| 20260505195501 | 18 | 201 | 8.0 | 17.7 | 0.15 | 0.18 | 0.18 | 1 | 1003.0 |
| 20260505195331 | 18 | 143 | 8.0 | 17.7 | 0.15 | 0.18 | 0.18 | 1 | 1003.0 |
| 20260505195231 | 18 | 141 | 9.7 | 17.7 | 0.15 | 0.18 | 0.18 | 1 | 1002.9 |
| 20260505195034 | 18 | 181 | 6.4 | 17.7 | 0.15 | 0.18 | 0.18 | 1 | 1003.0 |
| 20260505194958 | 18 | 179 | 8.0 | 17.7 | 0.15 | 0.18 | 0.18 | 1 | 1003.0 |
| 20260505194904 | 18 | 171 | 4.8 | 17.7 | 0.15 | 0.18 | 0.18 | 1 | 1003.0 |
| 20260505194825 | 18 | 186 | 3.2 | 16.1 | 0.15 | 0.18 | 0.18 | 1 | 1003.0 |
| 20260505194630 | 18 | 118 | 4.8 | 16.1 | 0.15 | 0.18 | 0.18 | 1 | 1003.1 |
| 20260505194531 | 18 | 120 | 4.8 | 16.1 | 0.15 | 0.18 | 0.18 | 1 | 1003.0 |
| 20260505194438 | 18 | 140 | 4.8 | 16.1 | 0.15 | 0.18 | 0.18 | 1 | 1003.0 |
| 20260505194329 | 18 | 164 | 4.8 | 16.1 | 0.15 | 0.18 | 0.18 | 1 | 1003.0 |
| 20260505194233 | 18 | 162 | 4.8 | 16.1 | 0.15 | 0.18 | 0.18 | 1 | 1003.0 |
| 20260505194155 | 18 | 194 | 4.8 | 16.1 | 0.15 | 0.18 | 0.18 | 1 | 1003.0 |
| 20260505194116 | 18 | 186 | 8.0 | 16.1 | 0.15 | 0.18 | 0.18 | 1 | 1003.0 |
| 20260505193939 | 18 | 205 | 9.7 | 16.1 | 0.15 | 0.18 | 0.18 | 1 | 1003.0 |
| 20260505193902 | 18 | 159 | 8.0 | 14.5 | 0.15 | 0.18 | 0.18 | 1 | 1003.0 |
| 20260505193816 | 18 | 155 | 9.7 | 14.5 | 0.15 | 0.18 | 0.18 | 1 | 1003.0 |
| 20260505193647 | 18 | 116 | 8.0 | 14.5 | 0.18 | 0.18 | 0.18 | 1 | 1002.9 |
| 20260505193530 | 18 | 144 | 8.0 | 14.5 | 0.18 | 0.18 | 0.18 | 1 | 1002.8 |
| 20260505193437 | 18 | 138 | 8.0 | 14.5 | 0.18 | 0.18 | 0.18 | 1 | 1002.8 |
| 20260505193359 | 18 | 122 | 8.0 | 14.5 | 0.15 | 0.15 | 0.15 | 1 | 1002.7 |
| 20260505193222 | 18 | 119 | 9.7 | 14.5 | 0.15 | 0.15 | 0.15 | 1 | 1002.7 |
| 20260505193143 | 18 | 139 | 8.0 | 12.9 | 0.15 | 0.15 | 0.15 | 1 | 1002.7 |
| 20260505193045 | 18 | 144 | 8.0 | 12.9 | 0.15 | 0.15 | 0.15 | 1 | 1002.7 |
| 20260505192949 | 18 | 177 | 6.4 | 14.5 | 0.15 | 0.15 | 0.15 | 7 | 1002.7 |
| 20260505192908 | 18 | 158 | 6.4 | 14.5 | 0.15 | 0.15 | 0.15 | 2 | 1002.6 |
| 20260505192736 | 19 | 161 | 4.8 | 14.5 | 0.15 | 0.15 | 0.15 | 10 | 1002.7 |
| 20260505192627 | 19 | 158 | 1.6 | 16.1 | 0.15 | 0.15 | 0.15 | 10 | 1002.6 |
| 20260505192433 | 19 | 219 | 6.4 | 27.4 | 0.15 | 0.15 | 0.15 | 17 | 1002.6 |
| 20260505192350 | 19 | 250 | 8.0 | 27.4 | 0.15 | 0.15 | 0.15 | 19 | 1002.6 |
| 20260505192315 | 19 | 215 | 9.7 | 27.4 | 0.15 | 0.15 | 0.15 | 19 | 1002.5 |
| 20260505192126 | 19 | 219 | 8.0 | 27.4 | 0.15 | 0.15 | 0.15 | 25 | 1002.5 |
| 20260505192040 | 19 | 194 | 9.7 | 27.4 | 0.15 | 0.15 | 0.15 | 25 | 1002.3 |
| 20260505191944 | 19 | 169 | 11.3 | 27.4 | 0.15 | 0.15 | 0.15 | 27 | 1002.3 |
| 20260505191859 | 20 | 204 | 12.9 | 27.4 | 0.15 | 0.15 | 0.15 | 26 | 1002.2 |
| 20260505191822 | 20 | 188 | 12.9 | 27.4 | 0.15 | 0.15 | 0.15 | 28 | 1002.2 |
| 20260505191624 | 20 | 243 | 11.3 | 22.5 | 0.15 | 0.15 | 0.15 | 34 | 1002.3 |
| 20260505191525 | 20 | 172 | 12.9 | 22.5 | 0.13 | 0.13 | 0.13 | 34 | 1002.2 |
| 20260505191427 | 21 | 197 | 11.3 | 22.5 | 0.10 | 0.10 | 0.10 | 36 | 1002.3 |
| 20260505191335 | 21 | 259 | 11.3 | 22.5 | 0.08 | 0.08 | 0.08 | 36 | 1002.3 |
| 20260505191219 | 21 | 270 | 9.7 | 20.9 | 0.03 | 0.03 | 0.03 | 41 | 1002.6 |
| 20260505191132 | 21 | 319 | 8.0 | 17.7 | 0.03 | 0.03 | 0.03 | 41 | 1002.2 |
| 20260505191054 | 21 | 269 | 8.0 | 17.7 | 0.03 | 0.03 | 0.03 | 41 | 1002.2 |
| 20260505190925 | 21 | 317 | 6.4 | 16.1 | 0.03 | 0.03 | 0.03 | 39 | 1002.1 |
| 20260505190818 | 20 | 318 | 8.0 | 14.5 | 0.03 | 0.03 | 0.03 | 39 | 1002.1 |
| 20260505190626 | 20 | 250 | 6.4 | 14.5 | 0.03 | 0.03 | 0.03 | 34 | 1001.9 |
| 20260505190551 | 20 | 291 | 4.8 | 9.7 | 0.03 | 0.03 | 0.03 | 34 | 1001.9 |
| 20260505190504 | 20 | 301 | 3.2 | 11.3 | 0.03 | 0.03 | 0.03 | 28 | 1001.6 |
| 20260505190316 | 20 | 138 | 1.6 | 6.4 | 0.03 | 0.03 | 0.03 | 24 | 1001.4 |
| 20260505190227 | 20 | 147 | 3.2 | 6.4 | 0.03 | 0.03 | 0.03 | 24 | 1001.3 |
| 20260505190120 | 20 | 355 | 3.2 | 6.4 | 0.03 | 0.03 | 0.03 | 22 | 1001.1 |
| 20260505190021 | 20 | 34 | 3.2 | 6.4 | 0.03 | 0.03 | 0.03 | 19 | 1001.1 |
| 20260505185823 | 21 | 105 | 1.6 | 3.2 | 0.03 | 0.03 | 0.03 | 5 | 1001.0 |
| 20260505185734 | 21 | 105 | 1.6 | 6.4 | 0.03 | 0.03 | 0.03 | 2 | 1000.9 |
| 20260505185638 | 21 | 105 | 0.0 | 9.7 | 0.03 | 0.03 | 0.03 | 8 | 1000.9 |
| 20260505185600 | 21 | 105 | 0.0 | 9.7 | 0.03 | 0.03 | 0.03 | 8 | 1000.9 |
| 20260505185518 | 21 | 105 | 1.6 | 9.7 | 0.03 | 0.03 | 0.03 | 13 | 1000.8 |
| 20260505185324 | 21 | 105 | 0.0 | 9.7 | 0.03 | 0.03 | 0.03 | 20 | 1000.8 |
| 20260505185239 | 21 | 105 | 0.0 | 9.7 | 0.03 | 0.03 | 0.03 | 23 | 1000.7 |
| 20260505185108 | 21 | 105 | 1.6 | 9.7 | 0.03 | 0.03 | 0.03 | 26 | 1000.8 |
| 20260505185031 | 21 | 105 | 3.2 | 9.7 | 0.03 | 0.03 | 0.03 | 28 | 1000.8 |
| 20260505184833 | 21 | 98 | 3.2 | 14.5 | 0.03 | 0.03 | 0.03 | 28 | 1000.9 |
| 20260505184756 | 21 | 111 | 3.2 | 14.5 | 0.03 | 0.03 | 0.03 | 34 | 1000.9 |
| 20260505184639 | 21 | 77 | 4.8 | 14.5 | 0.03 | 0.03 | 0.03 | 42 | 1000.8 |
| 20260505184559 | 21 | 113 | 4.8 | 14.5 | 0.03 | 0.03 | 0.03 | 47 | 1000.9 |
| 20260505184422 | 21 | 231 | 4.8 | 27.4 | 0.03 | 0.03 | 0.03 | 47 | 1000.9 |
| 20260505184346 | 21 | 189 | 4.8 | 27.4 | 0.03 | 0.03 | 0.03 | 47 | 1000.9 |
| 20260505184312 | 21 | 212 | 3.2 | 27.4 | 0.03 | 0.03 | 0.03 | 47 | 1001.0 |
| 20260505184216 | 21 | 202 | 4.8 | 27.4 | 0.03 | 0.03 | 0.03 | 48 | 1001.0 |
| 20260505184139 | 21 | 203 | 6.4 | 27.4 | 0.03 | 0.03 | 0.03 | 49 | 1001.0 |
| 20260505184008 | 22 | 187 | 8.0 | 27.4 | 0.03 | 0.03 | 0.03 | 50 | 1001.1 |
| 20260505183924 | 22 | 213 | 9.7 | 27.4 | 0.03 | 0.03 | 0.03 | 50 | 1001.1 |
| 20260505183734 | 22 | 226 | 17.7 | 27.4 | 0.00 | 0.00 | 0.00 | 51 | 1001.3 |
| 20260505183629 | 22 | 196 | 20.9 | 29.0 | 0.00 | 0.00 | 0.00 | 50 | 1001.4 |
| 20260505183551 | 22 | 223 | 20.9 | 29.0 | 0.00 | 0.00 | 0.00 | 50 | 1001.4 |
| 20260505183506 | 23 | 181 | 17.7 | 29.0 | 0.00 | 0.00 | 0.00 | 50 | 1001.6 |
| 20260505183427 | 23 | 188 | 16.1 | 27.4 | 0.00 | 0.00 | 0.00 | 49 | 1001.5 |
| 20260505183226 | 23 | 191 | 17.7 | 25.7 | 0.00 | 0.00 | 0.00 | 47 | 1001.3 |
| 20260505183148 | 23 | 196 | 16.1 | 25.7 | 0.00 | 0.00 | 0.00 | 47 | 1001.3 |
| 20260505183017 | 23 | 174 | 14.5 | 25.7 | 0.00 | 0.00 | 0.00 | 47 | 1001.1 |
| 20260505182931 | 24 | 162 | 12.9 | 25.7 | 0.00 | 0.00 | 0.00 | 48 | 1001.4 |
| 20260505182740 | 24 | 176 | 16.1 | 25.7 | 0.00 | 0.00 | 0.00 | 45 | 1001.0 |
| 20260505182654 | 24 | 148 | 14.5 | 25.7 | 0.00 | 0.00 | 0.00 | 45 | 1000.7 |
| 20260505182441 | 24 | 158 | 16.1 | 25.7 | 0.00 | 0.00 | 0.00 | 45 | 1000.7 |
| 20260505182406 | 24 | 211 | 17.7 | 25.7 | 0.00 | 0.00 | 0.00 | 45 | 1000.7 |
| 20260505182320 | 24 | 195 | 16.1 | 25.7 | 0.00 | 0.00 | 0.00 | 45 | 1000.6 |
| 20260505182131 | 24 | 194 | 11.3 | 24.1 | 0.00 | 0.00 | 0.00 | 45 | 1000.5 |
| 20260505182029 | 24 | 302 | 9.7 | 30.6 | 0.00 | 0.00 | 0.00 | 46 | 1000.5 |
| 20260505181953 | 24 | 207 | 11.3 | 30.6 | 0.00 | 0.00 | 0.00 | 46 | 1000.5 |
| 20260505181835 | 24 | 200 | 14.5 | 41.8 | 0.00 | 0.00 | 0.00 | 46 | 1000.6 |
| 20260505181759 | 24 | 163 | 16.1 | 41.8 | 0.00 | 0.00 | 0.00 | 45 | 1000.6 |
| 20260505181704 | 24 | 232 | 16.1 | 41.8 | 0.00 | 0.00 | 0.00 | 45 | 1000.6 |
| 20260505181627 | 24 | 178 | 14.5 | 41.8 | 0.00 | 0.00 | 0.00 | 45 | 1000.7 |
| 20260505181431 | 24 | 180 | 17.7 | 41.8 | 0.00 | 0.00 | 0.00 | 45 | 1000.8 |
| 20260505181334 | 24 | 186 | 22.5 | 41.8 | 0.00 | 0.00 | 0.00 | 45 | 1000.8 |
| 20260505181237 | 24 | 164 | 29.0 | 41.8 | 0.00 | 0.00 | 0.00 | 44 | 1000.8 |
| 20260505181203 | 24 | 171 | 27.4 | 41.8 | 0.00 | 0.00 | 0.00 | 44 | 1000.8 |
| 20260505181102 | 24 | 178 | 20.9 | 45.1 | 0.00 | 0.00 | 0.00 | 45 | 1000.7 |
| 20260505180934 | 24 | 219 | 14.5 | 32.2 | 0.00 | 0.00 | 0.00 | 45 | 1000.8 |
| 20260505180829 | 24 | 196 | 17.7 | 32.2 | 0.00 | 0.00 | 0.00 | 45 | 1000.7 |
| 20260505180614 | 24 | 226 | 17.7 | 38.6 | 0.00 | 0.00 | 0.00 | 44 | 1000.7 |
| 20260505180525 | 24 | 153 | 14.5 | 33.8 | 0.00 | 0.00 | 0.00 | 45 | 1000.7 |
| 20260505180428 | 24 | 175 | 16.1 | 38.6 | 0.00 | 0.00 | 0.00 | 45 | 1000.7 |
| 20260505180350 | 24 | 149 | 17.7 | 38.6 | 0.00 | 0.00 | 0.00 | 45 | 1000.7 |
| 20260505180310 | 24 | 203 | 19.3 | 38.6 | 0.00 | 0.00 | 0.00 | 44 | 1000.6 |
| 20260505180153 | 24 | 221 | 19.3 | 38.6 | 0.00 | 0.00 | 0.00 | 44 | 1000.6 |
| 20260505180119 | 24 | 224 | 20.9 | 38.6 | 0.00 | 0.00 | 0.00 | 45 | 1000.7 |
| 20260505175923 | 24 | 146 | 17.7 | 38.6 | 0.00 | 0.00 | 0.00 | 45 | 1000.8 |
| 20260505175824 | 24 | 132 | 22.5 | 38.6 | 0.00 | 0.00 | 0.00 | 44 | 1000.8 |
| 20260505175726 | 24 | 159 | 22.5 | 38.6 | 0.00 | 0.00 | 0.00 | 44 | 1000.7 |
| 20260505175648 | 24 | 177 | 22.5 | 38.6 | 0.00 | 0.00 | 0.00 | 44 | 1000.7 |
| 20260505175517 | 24 | 182 | 19.3 | 35.4 | 0.00 | 0.00 | 0.00 | 44 | 1000.7 |
| 20260505175431 | 24 | 128 | 17.7 | 40.2 | 0.00 | 0.00 | 0.00 | 44 | 1000.9 |
| 20260505175240 | 24 | 115 | 20.9 | 40.2 | 0.00 | 0.00 | 0.00 | 44 | 1001.0 |
| 20260505175134 | 24 | 178 | 22.5 | 40.2 | 0.00 | 0.00 | 0.00 | 44 | 1000.9 |
| 20260505175021 | 24 | 220 | 19.3 | 40.2 | 0.00 | 0.00 | 0.00 | 44 | 1000.9 |
| 20260505174945 | 24 | 160 | 19.3 | 40.2 | 0.00 | 0.00 | 0.00 | 44 | 1000.9 |
| 20260505174906 | 24 | 169 | 16.1 | 40.2 | 0.00 | 0.00 | 0.00 | 45 | 1000.8 |
| 20260505174716 | 24 | 161 | 17.7 | 40.2 | 0.00 | 0.00 | 0.00 | 44 | 1001.0 |
| 20260505174630 | 24 | 130 | 20.9 | 40.2 | 0.00 | 0.00 | 0.00 | 44 | 1001.1 |
| 20260505174440 | 24 | 192 | 24.1 | 46.7 | 0.00 | 0.00 | 0.00 | 43 | 1001.1 |
| 20260505174335 | 24 | 173 | 22.5 | 49.9 | 0.00 | 0.00 | 0.00 | 44 | 1001.2 |
| 20260505174258 | 24 | 170 | 19.3 | 49.9 | 0.00 | 0.00 | 0.00 | 44 | 1001.2 |
| 20260505174143 | 24 | 194 | 22.5 | 49.9 | 0.00 | 0.00 | 0.00 | 43 | 1001.0 |
| 20260505174110 | 24 | 164 | 22.5 | 49.9 | 0.00 | 0.00 | 0.00 | 43 | 1000.9 |
| 20260505174036 | 24 | 192 | 22.5 | 49.9 | 0.00 | 0.00 | 0.00 | 43 | 1000.9 |
| 20260505173918 | 24 | 155 | 22.5 | 49.9 | 0.00 | 0.00 | 0.00 | 44 | 1001.0 |
| 20260505173819 | 24 | 155 | 25.7 | 49.9 | 0.00 | 0.00 | 0.00 | 44 | 1001.1 |
| 20260505173621 | 24 | 188 | 27.4 | 49.9 | 0.00 | 0.00 | 0.00 | 43 | 1001.2 |
| 20260505173545 | 24 | 184 | 24.1 | 53.1 | 0.00 | 0.00 | 0.00 | 44 | 1001.2 |
| 20260505173429 | 24 | 155 | 20.9 | 38.6 | 0.00 | 0.00 | 0.00 | 44 | 1001.2 |
| 20260505173352 | 25 | 221 | 20.9 | 43.5 | 0.00 | 0.00 | 0.00 | 44 | 1001.2 |
| 20260505173133 | 25 | 171 | 22.5 | 43.5 | 0.00 | 0.00 | 0.00 | 43 | 1001.2 |
| 20260505173038 | 25 | 189 | 22.5 | 43.5 | 0.00 | 0.00 | 0.00 | 43 | 1001.2 |
| 20260505172940 | 25 | 169 | 24.1 | 43.5 | 0.00 | 0.00 | 0.00 | 44 | 1001.1 |
| 20260505172904 | 25 | 136 | 25.7 | 43.5 | 0.00 | 0.00 | 0.00 | 45 | 1001.1 |
| 20260505172824 | 25 | 139 | 25.7 | 43.5 | 0.00 | 0.00 | 0.00 | 44 | 1001.1 |
| 20260505172627 | 25 | 144 | 24.1 | 43.5 | 0.00 | 0.00 | 0.00 | 44 | 1001.1 |
| 20260505172549 | 25 | 237 | 22.5 | 45.1 | 0.00 | 0.00 | 0.00 | 44 | 1001.1 |
| 20260505172432 | 25 | 119 | 24.1 | 38.6 | 0.00 | 0.00 | 0.00 | 44 | 1001.3 |
| 20260505172356 | 25 | 189 | 24.1 | 43.5 | 0.00 | 0.00 | 0.00 | 43 | 1001.3 |
| 20260505172310 | 25 | 180 | 20.9 | 43.5 | 0.00 | 0.00 | 0.00 | 44 | 1001.2 |
| 20260505172131 | 25 | 199 | 20.9 | 43.5 | 0.00 | 0.00 | 0.00 | 44 | 1001.1 |
| 20260505172049 | 24 | 163 | 22.5 | 43.5 | 0.00 | 0.00 | 0.00 | 44 | 1001.1 |
| 20260505171857 | 24 | 168 | 20.9 | 48.3 | 0.00 | 0.00 | 0.00 | 44 | 1001.2 |
| 20260505171759 | 24 | 165 | 24.1 | 51.5 | 0.00 | 0.00 | 0.00 | 44 | 1001.2 |
| 20260505171625 | 24 | 138 | 27.4 | 51.5 | 0.00 | 0.00 | 0.00 | 43 | 1001.3 |
| 20260505171528 | 24 | 163 | 24.1 | 51.5 | 0.00 | 0.00 | 0.00 | 44 | 1001.3 |
| 20260505171429 | 24 | 191 | 22.5 | 51.5 | 0.00 | 0.00 | 0.00 | 44 | 1001.4 |
| 20260505171353 | 24 | 157 | 17.7 | 51.5 | 0.00 | 0.00 | 0.00 | 44 | 1001.4 |
| 20260505171237 | 24 | 218 | 19.3 | 51.5 | 0.00 | 0.00 | 0.00 | 46 | 1001.3 |
| 20260505171159 | 24 | 196 | 25.7 | 51.5 | 0.00 | 0.00 | 0.00 | 45 | 1001.2 |
| 20260505171026 | 24 | 150 | 27.4 | 51.5 | 0.00 | 0.00 | 0.00 | 45 | 1001.3 |
| 20260505170950 | 24 | 160 | 22.5 | 51.5 | 0.00 | 0.00 | 0.00 | 45 | 1001.3 |
| 20260505170904 | 24 | 177 | 14.5 | 33.8 | 0.00 | 0.00 | 0.00 | 45 | 1001.2 |
| 20260505170711 | 24 | 115 | 16.1 | 33.8 | 0.00 | 0.00 | 0.00 | 45 | 1001.2 |
| 20260505170634 | 24 | 186 | 17.7 | 33.8 | 0.00 | 0.00 | 0.00 | 45 | 1001.2 |
| 20260505170436 | 24 | 153 | 17.7 | 40.2 | 0.00 | 0.00 | 0.00 | 45 | 1001.4 |
| 20260505170400 | 24 | 174 | 17.7 | 40.2 | 0.00 | 0.00 | 0.00 | 45 | 1001.4 |
| 20260505170224 | 24 | 148 | 17.7 | 40.2 | 0.00 | 0.00 | 0.00 | 45 | 1001.3 |
| 20260505170122 | 24 | 151 | 20.9 | 40.2 | 0.00 | 0.00 | 0.00 | 45 | 1001.4 |
| 20260505170054 | 24 | 188 | 19.3 | 40.2 | 0.00 | 0.00 | 0.00 | 45 | 1001.4 |
| 20260505165956 | 24 | 199 | 16.1 | 40.2 | 0.00 | 0.00 | 0.00 | 45 | 1001.5 |
| 20260505165859 | 24 | 181 | 19.3 | 40.2 | 0.00 | 0.00 | 0.00 | 45 | 1001.5 |
| 20260505165820 | 24 | 194 | 20.9 | 40.2 | 0.00 | 0.00 | 0.00 | 45 | 1001.6 |
| 20260505165624 | 24 | 189 | 22.5 | 38.6 | 0.00 | 0.00 | 0.00 | 45 | 1001.8 |
| 20260505165525 | 23 | 136 | 20.9 | 37.0 | 0.00 | 0.00 | 0.00 | 45 | 1001.8 |
| 20260505165427 | 23 | 152 | 14.5 | 33.8 | 0.00 | 0.00 | 0.00 | 47 | 1001.7 |
| 20260505165351 | 23 | 151 | 12.9 | 32.2 | 0.00 | 0.00 | 0.00 | 47 | 1001.7 |
| 20260505165314 | 23 | 174 | 11.3 | 30.6 | 0.00 | 0.00 | 0.00 | 47 | 1001.7 |
| 20260505165220 | 23 | 122 | 11.3 | 38.6 | 0.00 | 0.00 | 0.00 | 48 | 1001.7 |
| 20260505165144 | 23 | 158 | 12.9 | 38.6 | 0.00 | 0.00 | 0.00 | 47 | 1001.7 |
| 20260505165016 | 23 | 131 | 17.7 | 35.4 | 0.00 | 0.00 | 0.00 | 47 | 1001.9 |
| 20260505164930 | 23 | 190 | 17.7 | 35.4 | 0.00 | 0.00 | 0.00 | 47 | 1001.8 |
| 20260505164740 | 23 | 146 | 17.7 | 35.4 | 0.00 | 0.00 | 0.00 | 47 | 1002.0 |
| 20260505164704 | 23 | 194 | 17.7 | 35.4 | 0.00 | 0.00 | 0.00 | 47 | 1002.0 |
| 20260505164618 | 23 | 146 | 19.3 | 35.4 | 0.00 | 0.00 | 0.00 | 47 | 1001.9 |
| 20260505164428 | 23 | 140 | 24.1 | 35.4 | 0.00 | 0.00 | 0.00 | 47 | 1001.9 |
| 20260505164343 | 23 | 161 | 27.4 | 43.5 | 0.00 | 0.00 | 0.00 | 46 | 1001.9 |
| 20260505164307 | 23 | 175 | 19.3 | 37.0 | 0.00 | 0.00 | 0.00 | 47 | 1002.0 |
| 20260505164207 | 23 | 178 | 14.5 | 33.8 | 0.00 | 0.00 | 0.00 | 47 | 1002.3 |
| 20260505164121 | 23 | 148 | 14.5 | 29.0 | 0.00 | 0.00 | 0.00 | 46 | 1002.0 |
| 20260505163934 | 23 | 177 | 19.3 | 29.0 | 0.00 | 0.00 | 0.00 | 47 | 1002.2 |
| 20260505163850 | 23 | 192 | 19.3 | 29.0 | 0.00 | 0.00 | 0.00 | 47 | 1002.2 |
| 20260505163813 | 23 | 196 | 19.3 | 29.0 | 0.00 | 0.00 | 0.00 | 47 | 1002.3 |
| 20260505163733 | 23 | 128 | 19.3 | 30.6 | 0.00 | 0.00 | 0.00 | 47 | 1002.1 |
| 20260505163626 | 23 | 138 | 17.7 | 30.6 | 0.00 | 0.00 | 0.00 | 48 | 1002.2 |
| 20260505163456 | 23 | 160 | 17.7 | 32.2 | 0.00 | 0.00 | 0.00 | 47 | 1002.3 |
| 20260505163338 | 22 | 148 | 17.7 | 37.0 | 0.00 | 0.00 | 0.00 | 48 | 1002.5 |
| 20260505163241 | 22 | 139 | 17.7 | 37.0 | 0.00 | 0.00 | 0.00 | 48 | 1002.5 |
| 20260505163144 | 22 | 234 | 16.1 | 37.0 | 0.00 | 0.00 | 0.00 | 48 | 1002.5 |
| 20260505163041 | 22 | 174 | 16.1 | 37.0 | 0.00 | 0.00 | 0.00 | 48 | 1002.4 |
| 20260505162923 | 22 | 133 | 16.1 | 37.0 | 0.00 | 0.00 | 0.00 | 48 | 1002.4 |
| 20260505162845 | 22 | 166 | 19.3 | 37.0 | 0.00 | 0.00 | 0.00 | 47 | 1002.4 |
| 20260505162654 | 22 | 125 | 24.1 | 35.4 | 0.00 | 0.00 | 0.00 | 47 | 1002.5 |
| 20260505162609 | 22 | 179 | 24.1 | 35.4 | 0.00 | 0.00 | 0.00 | 48 | 1002.6 |
| 20260505162419 | 22 | 138 | 19.3 | 35.4 | 0.00 | 0.00 | 0.00 | 48 | 1002.6 |
| 20260505162319 | 22 | 170 | 19.3 | 35.4 | 0.00 | 0.00 | 0.00 | 48 | 1002.5 |
| 20260505162124 | 22 | 187 | 19.3 | 45.1 | 0.00 | 0.00 | 0.00 | 48 | 1002.6 |
| 20260505162038 | 22 | 148 | 20.9 | 45.1 | 0.00 | 0.00 | 0.00 | 47 | 1002.6 |
| 20260505161908 | 22 | 140 | 19.3 | 45.1 | 0.00 | 0.00 | 0.00 | 48 | 1002.6 |
| 20260505161834 | 22 | 186 | 20.9 | 45.1 | 0.00 | 0.00 | 0.00 | 48 | 1002.5 |
| 20260505161704 | 22 | 175 | 20.9 | 45.1 | 0.00 | 0.00 | 0.00 | 48 | 1002.6 |
| 20260505161618 | 22 | 144 | 16.1 | 45.1 | 0.00 | 0.00 | 0.00 | 48 | 1002.6 |
| 20260505161447 | 22 | 172 | 20.9 | 45.1 | 0.00 | 0.00 | 0.00 | 48 | 1002.7 |
| 20260505161350 | 22 | 146 | 20.9 | 45.1 | 0.00 | 0.00 | 0.00 | 48 | 1002.7 |
| 20260505161306 | 22 | 188 | 20.9 | 46.7 | 0.00 | 0.00 | 0.00 | 49 | 1002.8 |
| 20260505161024 | 22 | 169 | 22.5 | 40.2 | 0.00 | 0.00 | 0.00 | 48 | 1003.1 |
| 20260505160939 | 22 | 146 | 22.5 | 40.2 | 0.00 | 0.00 | 0.00 | 48 | 1002.8 |
| 20260505160757 | 22 | 169 | 22.5 | 40.2 | 0.00 | 0.00 | 0.00 | 48 | 1003.0 |
| 20260505160608 | 22 | 159 | 22.5 | 40.2 | 0.00 | 0.00 | 0.00 | 48 | 1003.0 |
| 20260505160426 | 22 | 185 | 22.5 | 41.8 | 0.00 | 0.00 | 0.00 | 48 | 1003.0 |
| 20260505160341 | 22 | 141 | 19.3 | 37.0 | 0.00 | 0.00 | 0.00 | 48 | 1003.0 |
| 20260505160241 | 22 | 145 | 17.7 | 37.0 | 0.00 | 0.00 | 0.00 | 48 | 1003.0 |
| 20260505160125 | 22 | 144 | 20.9 | 37.0 | 0.00 | 0.00 | 0.00 | 48 | 1003.0 |
| 20260505153344 | 21 | 174 | 14.5 | 35.4 | 0.00 | 0.00 | 0.00 | 49 | 1003.6 |
| 20260505153304 | 21 | 207 | 14.5 | 35.4 | 0.00 | 0.00 | 0.00 | 49 | 1003.7 |
| 20260505153206 | 21 | 186 | 17.7 | 35.4 | 0.00 | 0.00 | 0.00 | 49 | 1003.6 |
| 20260505153128 | 21 | 126 | 19.3 | 35.4 | 0.00 | 0.00 | 0.00 | 48 | 1003.6 |
| 20260505152931 | 21 | 170 | 25.7 | 33.8 | 0.00 | 0.00 | 0.00 | 48 | 1003.6 |
| 20260505152833 | 21 | 167 | 22.5 | 33.8 | 0.00 | 0.00 | 0.00 | 48 | 1003.5 |
| 20260505152737 | 21 | 175 | 20.9 | 33.8 | 0.00 | 0.00 | 0.00 | 48 | 1003.6 |
| 20260505152701 | 21 | 136 | 22.5 | 33.8 | 0.00 | 0.00 | 0.00 | 48 | 1003.6 |
| 20260505152624 | 21 | 164 | 20.9 | 33.8 | 0.00 | 0.00 | 0.00 | 49 | 1003.8 |
| 20260505152426 | 21 | 175 | 17.7 | 35.4 | 0.00 | 0.00 | 0.00 | 49 | 1003.6 |
| 20260505152350 | 21 | 190 | 20.9 | 35.4 | 0.00 | 0.00 | 0.00 | 48 | 1003.6 |
| 20260505152235 | 21 | 169 | 22.5 | 37.0 | 0.00 | 0.00 | 0.00 | 48 | 1003.5 |
| 20260505152157 | 21 | 144 | 22.5 | 35.4 | 0.00 | 0.00 | 0.00 | 48 | 1003.4 |
| 20260505152041 | 21 | 180 | 20.9 | 35.4 | 0.00 | 0.00 | 0.00 | 48 | 1003.6 |
| 20260505151919 | 21 | 178 | 20.9 | 35.4 | 0.00 | 0.00 | 0.00 | 48 | 1003.7 |
| 20260505151730 | 21 | 198 | 17.7 | 45.1 | 0.00 | 0.00 | 0.00 | 49 | 1003.6 |
| 20260505151627 | 21 | 236 | 17.7 | 45.1 | 0.00 | 0.00 | 0.00 | 49 | 1003.6 |
| 20260505151548 | 21 | 126 | 17.7 | 45.1 | 0.00 | 0.00 | 0.00 | 49 | 1003.6 |
| 20260505151443 | 21 | 123 | 17.7 | 45.1 | 0.00 | 0.00 | 0.00 | 49 | 1003.6 |
| 20260505151415 | 21 | 173 | 17.7 | 45.1 | 0.00 | 0.00 | 0.00 | 49 | 1003.6 |
| 20260505151238 | 21 | 190 | 22.5 | 45.1 | 0.00 | 0.00 | 0.00 | 49 | 1003.7 |
| 20260505151200 | 21 | 192 | 24.1 | 45.1 | 0.00 | 0.00 | 0.00 | 49 | 1003.7 |
| 20260505150951 | 21 | 160 | 16.1 | 41.8 | 0.00 | 0.00 | 0.00 | 49 | 1003.6 |
| 20260505150846 | 21 | 180 | 19.3 | 41.8 | 0.00 | 0.00 | 0.00 | 49 | 1003.6 |
| 20260505150716 | 21 | 202 | 19.3 | 41.8 | 0.00 | 0.00 | 0.00 | 49 | 1003.7 |
| 20260505150638 | 21 | 183 | 19.3 | 41.8 | 0.00 | 0.00 | 0.00 | 49 | 1003.7 |
| 20260505150516 | 20 | 155 | 20.9 | 41.8 | 0.00 | 0.00 | 0.00 | 48 | 1003.9 |
| 20260505150430 | 20 | 159 | 22.5 | 41.8 | 0.00 | 0.00 | 0.00 | 49 | 1003.9 |
| 20260505150314 | 20 | 166 | 24.1 | 41.8 | 0.00 | 0.00 | 0.00 | 49 | 1003.9 |
| 20260505150237 | 20 | 147 | 24.1 | 41.8 | 0.00 | 0.00 | 0.00 | 49 | 1003.9 |
| 20260505140623 | 18 | 139 | 12.9 | 33.8 | 0.00 | 0.00 | 0.00 | 49 | 1004.7 |
| 20260505140504 | 18 | 144 | 9.7 | 33.8 | 0.00 | 0.00 | 0.00 | 49 | 1004.6 |
| 20260505140426 | 18 | 140 | 9.7 | 33.8 | 0.00 | 0.00 | 0.00 | 49 | 1004.7 |
| 20260505140203 | 18 | 185 | 11.3 | 33.8 | 0.00 | 0.00 | 0.00 | 49 | 1004.7 |
| 20260505140116 | 18 | 172 | 11.3 | 33.8 | 0.00 | 0.00 | 0.00 | 49 | 1004.7 |
| 20260505130218 | 17 | 179 | 17.7 | 32.2 | 0.00 | 0.00 | 0.00 | 50 | 1004.6 |
| 20260505130140 | 17 | 159 | 14.5 | 29.0 | 0.00 | 0.00 | 0.00 | 50 | 1004.6 |
| 20260505125021 | 17 | 125 | 12.9 | 24.1 | 0.00 | 0.00 | 0.00 | 50 | 1005.0 |
| 20260505124945 | 17 | 172 | 12.9 | 24.1 | 0.00 | 0.00 | 0.00 | 50 | 1005.0 |
| 20260505124839 | 17 | 142 | 11.3 | 24.1 | 0.00 | 0.00 | 0.00 | 50 | 1004.9 |
| 20260505124724 | 17 | 162 | 12.9 | 24.1 | 0.00 | 0.00 | 0.00 | 50 | 1005.0 |
| 20260505124627 | 17 | 183 | 12.9 | 24.1 | 0.00 | 0.00 | 0.00 | 50 | 1004.9 |
| 20260505124541 | 17 | 192 | 12.9 | 24.1 | 0.00 | 0.00 | 0.00 | 50 | 1005.0 |
| 20260505124427 | 17 | 171 | 12.9 | 32.2 | 0.00 | 0.00 | 0.00 | 50 | 1004.9 |
| 20260505124341 | 17 | 188 | 12.9 | 32.2 | 0.00 | 0.00 | 0.00 | 50 | 1005.0 |
| 20260505124131 | 17 | 214 | 14.5 | 32.2 | 0.00 | 0.00 | 0.00 | 50 | 1005.0 |
| 20260505124026 | 17 | 233 | 14.5 | 32.2 | 0.00 | 0.00 | 0.00 | 50 | 1005.0 |
| 20260505123949 | 17 | 171 | 16.1 | 32.2 | 0.00 | 0.00 | 0.00 | 50 | 1005.0 |
| 20260505123853 | 17 | 227 | 16.1 | 32.2 | 0.00 | 0.00 | 0.00 | 50 | 1005.1 |
| 20260505123816 | 17 | 196 | 14.5 | 32.2 | 0.00 | 0.00 | 0.00 | 50 | 1005.0 |
| 20260505123644 | 16 | 169 | 14.5 | 27.4 | 0.00 | 0.00 | 0.00 | 50 | 1005.0 |
| 20260505123538 | 16 | 188 | 12.9 | 27.4 | 0.00 | 0.00 | 0.00 | 50 | 1004.9 |
| 20260505123408 | 16 | 158 | 11.3 | 27.4 | 0.00 | 0.00 | 0.00 | 50 | 1004.9 |
| 20260505123330 | 16 | 149 | 11.3 | 27.4 | 0.00 | 0.00 | 0.00 | 50 | 1004.9 |
| 20260505123137 | 16 | 123 | 12.9 | 27.4 | 0.00 | 0.00 | 0.00 | 51 | 1004.9 |
| 20260505123059 | 16 | 187 | 14.5 | 29.0 | 0.00 | 0.00 | 0.00 | 51 | 1004.9 |
| 20260505122943 | 16 | 131 | 12.9 | 29.0 | 0.00 | 0.00 | 0.00 | 51 | 1004.9 |
| 20260505122904 | 16 | 169 | 11.3 | 29.0 | 0.00 | 0.00 | 0.00 | 51 | 1005.0 |
| 20260505122714 | 16 | 209 | 12.9 | 29.0 | 0.00 | 0.00 | 0.00 | 51 | 1005.0 |
| 20260505122629 | 16 | 179 | 14.5 | 29.0 | 0.00 | 0.00 | 0.00 | 51 | 1005.0 |
| 20260505122438 | 16 | 130 | 19.3 | 29.0 | 0.00 | 0.00 | 0.00 | 51 | 1005.1 |
| 20260505122314 | 16 | 207 | 22.5 | 32.2 | 0.00 | 0.00 | 0.00 | 51 | 1005.1 |
| 20260505122232 | 16 | 216 | 19.3 | 32.2 | 0.00 | 0.00 | 0.00 | 51 | 1005.1 |
| 20260505122155 | 16 | 165 | 14.5 | 32.2 | 0.00 | 0.00 | 0.00 | 51 | 1005.1 |
| 20260505122116 | 16 | 173 | 11.3 | 32.2 | 0.00 | 0.00 | 0.00 | 51 | 1005.1 |
| 20260505121941 | 16 | 174 | 12.9 | 32.2 | 0.00 | 0.00 | 0.00 | 51 | 1005.1 |
| 20260505121902 | 16 | 158 | 12.9 | 32.2 | 0.00 | 0.00 | 0.00 | 51 | 1005.1 |
| 20260505121743 | 16 | 183 | 14.5 | 32.2 | 0.00 | 0.00 | 0.00 | 51 | 1005.1 |
| 20260505121637 | 16 | 161 | 17.7 | 32.2 | 0.00 | 0.00 | 0.00 | 51 | 1005.0 |
| 20260505121507 | 16 | 182 | 22.5 | 33.8 | 0.00 | 0.00 | 0.00 | 51 | 1005.1 |
| 20260505121430 | 16 | 150 | 20.9 | 33.8 | 0.00 | 0.00 | 0.00 | 51 | 1005.1 |
| 20260505121234 | 16 | 195 | 17.7 | 35.4 | 0.00 | 0.00 | 0.00 | 51 | 1005.2 |
| 20260505121137 | 16 | 148 | 12.9 | 35.4 | 0.00 | 0.00 | 0.00 | 51 | 1005.1 |
| 20260505121024 | 16 | 159 | 14.5 | 35.4 | 0.00 | 0.00 | 0.00 | 51 | 1005.1 |
| 20260505120948 | 16 | 201 | 17.7 | 35.4 | 0.00 | 0.00 | 0.00 | 51 | 1005.1 |
| 20260505120825 | 16 | 155 | 19.3 | 37.0 | 0.00 | 0.00 | 0.00 | 51 | 1005.0 |
| 20260505120728 | 16 | 166 | 16.1 | 35.4 | 0.00 | 0.00 | 0.00 | 51 | 1004.9 |
| 20260505120651 | 16 | 151 | 17.7 | 35.4 | 0.00 | 0.00 | 0.00 | 51 | 1004.9 |
| 20260505120613 | 16 | 207 | 19.3 | 35.4 | 0.00 | 0.00 | 0.00 | 51 | 1004.9 |
| 20260505120518 | 16 | 165 | 19.3 | 37.0 | 0.00 | 0.00 | 0.00 | 51 | 1004.9 |
| 20260505120438 | 16 | 158 | 17.7 | 37.0 | 0.00 | 0.00 | 0.00 | 51 | 1004.8 |
| 20260505120310 | 16 | 146 | 19.3 | 29.0 | 0.00 | 0.00 | 0.00 | 51 | 1004.9 |
| 20260505120224 | 16 | 150 | 20.9 | 33.8 | 0.00 | 0.00 | 0.00 | 51 | 1004.9 |
| 20260505120037 | 16 | 161 | 19.3 | 40.2 | 0.00 | 0.00 | 0.00 | 51 | 1004.9 |
| 20260505120001 | 16 | 174 | 19.3 | 40.2 | 0.00 | 0.00 | 0.00 | 51 | 1004.9 |
| 20260505115914 | 16 | 198 | 20.9 | 40.2 | 0.00 | 0.00 | 0.00 | 51 | 1004.9 |
| 20260505115634 | 16 | 163 | 17.7 | 40.2 | 0.00 | 0.00 | 0.00 | 51 | 1004.8 |
| 20260505115549 | 16 | 192 | 20.9 | 40.2 | 0.00 | 0.00 | 0.00 | 51 | 1004.8 |
| 20260505115419 | 16 | 215 | 24.1 | 40.2 | 0.00 | 0.00 | 0.00 | 50 | 1005.0 |
| 20260505115320 | 16 | 167 | 22.5 | 40.2 | 0.00 | 0.00 | 0.00 | 50 | 1004.9 |
| 20260505115122 | 16 | 188 | 14.5 | 27.4 | 0.00 | 0.00 | 0.00 | 51 | 1004.8 |
| 20260505115047 | 16 | 178 | 14.5 | 30.6 | 0.00 | 0.00 | 0.00 | 51 | 1004.8 |
| 20260505114936 | 16 | 189 | 16.1 | 30.6 | 0.00 | 0.00 | 0.00 | 51 | 1004.9 |
| 20260505114857 | 16 | 222 | 14.5 | 30.6 | 0.00 | 0.00 | 0.00 | 51 | 1004.9 |
| 20260505114728 | 16 | 157 | 14.5 | 30.6 | 0.00 | 0.00 | 0.00 | 51 | 1004.8 |
| 20260505114621 | 16 | 170 | 16.1 | 30.6 | 0.00 | 0.00 | 0.00 | 50 | 1004.8 |
| 20260505114432 | 16 | 205 | 14.5 | 30.6 | 0.00 | 0.00 | 0.00 | 50 | 1004.9 |
| 20260505114327 | 16 | 221 | 17.7 | 30.6 | 0.00 | 0.00 | 0.00 | 50 | 1004.8 |
| 20260505114249 | 16 | 181 | 17.7 | 30.6 | 0.00 | 0.00 | 0.00 | 50 | 1004.8 |
| 20260505114133 | 16 | 152 | 14.5 | 25.7 | 0.00 | 0.00 | 0.00 | 50 | 1004.9 |
| 20260505114054 | 16 | 176 | 14.5 | 25.7 | 0.00 | 0.00 | 0.00 | 50 | 1005.0 |
| 20260505113935 | 16 | 184 | 11.3 | 25.7 | 0.00 | 0.00 | 0.00 | 51 | 1005.0 |
| 20260505113842 | 16 | 231 | 8.0 | 25.7 | 0.00 | 0.00 | 0.00 | 50 | 1005.0 |
| 20260505113737 | 16 | 106 | 9.7 | 25.7 | 0.00 | 0.00 | 0.00 | 51 | 1004.9 |
| 20260505113710 | 16 | 191 | 11.3 | 25.7 | 0.00 | 0.00 | 0.00 | 50 | 1004.9 |
| 20260505113626 | 16 | 181 | 12.9 | 29.0 | 0.00 | 0.00 | 0.00 | 50 | 1004.7 |
| 20260505113527 | 16 | 198 | 14.5 | 29.0 | 0.00 | 0.00 | 0.00 | 50 | 1004.7 |
| 20260505113330 | 16 | 123 | 14.5 | 29.0 | 0.00 | 0.00 | 0.00 | 50 | 1004.7 |
| 20260505113232 | 16 | 151 | 14.5 | 29.0 | 0.00 | 0.00 | 0.00 | 50 | 1004.7 |
| 20260505113136 | 16 | 180 | 14.5 | 29.0 | 0.00 | 0.00 | 0.00 | 50 | 1004.6 |
| 20260505113058 | 16 | 204 | 12.9 | 29.0 | 0.00 | 0.00 | 0.00 | 50 | 1004.6 |
| 20260505113023 | 16 | 185 | 14.5 | 29.0 | 0.00 | 0.00 | 0.00 | 50 | 1004.6 |
| 20260505112827 | 16 | 183 | 16.1 | 27.4 | 0.00 | 0.00 | 0.00 | 50 | 1004.7 |
| 20260505112749 | 16 | 182 | 16.1 | 30.6 | 0.00 | 0.00 | 0.00 | 50 | 1004.7 |
| 20260505112631 | 16 | 145 | 14.5 | 30.6 | 0.00 | 0.00 | 0.00 | 50 | 1004.7 |
| 20260505112555 | 16 | 187 | 16.1 | 30.6 | 0.00 | 0.00 | 0.00 | 50 | 1004.7 |
| 20260505112516 | 16 | 145 | 17.7 | 30.6 | 0.00 | 0.00 | 0.00 | 50 | 1004.8 |
| 20260505112421 | 16 | 229 | 17.7 | 30.6 | 0.00 | 0.00 | 0.00 | 50 | 1004.8 |
| 20260505112322 | 16 | 151 | 17.7 | 30.6 | 0.00 | 0.00 | 0.00 | 50 | 1004.8 |
| 20260505112124 | 16 | 147 | 16.1 | 30.6 | 0.00 | 0.00 | 0.00 | 50 | 1004.9 |
| 20260505112030 | 15 | 188 | 17.7 | 30.6 | 0.00 | 0.00 | 0.00 | 50 | 1004.9 |
| 20260505111932 | 15 | 208 | 17.7 | 30.6 | 0.00 | 0.00 | 0.00 | 50 | 1004.9 |
| 20260505111855 | 15 | 149 | 14.5 | 32.2 | 0.00 | 0.00 | 0.00 | 50 | 1004.9 |
| 20260505111817 | 15 | 151 | 11.3 | 32.2 | 0.00 | 0.00 | 0.00 | 50 | 1005.0 |
| 20260505111639 | 15 | 200 | 14.5 | 30.6 | 0.00 | 0.00 | 0.00 | 50 | 1004.9 |
| 20260505111542 | 15 | 155 | 16.1 | 30.6 | 0.00 | 0.00 | 0.00 | 50 | 1004.9 |
| 20260505111426 | 15 | 165 | 16.1 | 30.6 | 0.00 | 0.00 | 0.00 | 50 | 1004.9 |
| 20260505111347 | 15 | 174 | 17.7 | 30.6 | 0.00 | 0.00 | 0.00 | 50 | 1004.9 |
| 20260505111218 | 15 | 161 | 14.5 | 33.8 | 0.00 | 0.00 | 0.00 | 50 | 1004.9 |
| 20260505111131 | 15 | 159 | 11.3 | 30.6 | 0.00 | 0.00 | 0.00 | 50 | 1005.0 |
| 20260505110947 | 15 | 166 | 14.5 | 30.6 | 0.00 | 0.00 | 0.00 | 50 | 1004.9 |
| 20260505110839 | 15 | 226 | 14.5 | 30.6 | 0.00 | 0.00 | 0.00 | 50 | 1004.9 |
| 20260505110742 | 15 | 148 | 14.5 | 29.0 | 0.00 | 0.00 | 0.00 | 50 | 1004.9 |
| 20260505110657 | 15 | 158 | 16.1 | 29.0 | 0.00 | 0.00 | 0.00 | 50 | 1004.9 |
| 20260505110538 | 15 | 191 | 16.1 | 29.0 | 0.00 | 0.00 | 0.00 | 50 | 1004.8 |
| 20260505110443 | 15 | 217 | 16.1 | 25.7 | 0.00 | 0.00 | 0.00 | 50 | 1004.8 |
| 20260505110404 | 15 | 150 | 14.5 | 29.0 | 0.00 | 0.00 | 0.00 | 50 | 1004.8 |
| 20260505110203 | 15 | 205 | 11.3 | 29.0 | 0.00 | 0.00 | 0.00 | 50 | 1004.8 |
| 20260505102038 | 14 | 179 | 9.7 | 17.7 | 0.00 | 0.00 | 0.00 | 50 | 1004.5 |
| 20260505101959 | 14 | 173 | 8.0 | 24.1 | 0.00 | 0.00 | 0.00 | 51 | 1004.5 |
| 20260505101905 | 14 | 155 | 8.0 | 24.1 | 0.00 | 0.00 | 0.00 | 51 | 1004.5 |
| 20260505101825 | 14 | 153 | 8.0 | 24.1 | 0.00 | 0.00 | 0.00 | 51 | 1004.5 |
| 20260505101628 | 14 | 191 | 11.3 | 24.1 | 0.00 | 0.00 | 0.00 | 51 | 1004.4 |
| 20260505101535 | 15 | 119 | 14.5 | 24.1 | 0.00 | 0.00 | 0.00 | 51 | 1004.5 |
| 20260505101438 | 15 | 159 | 11.3 | 24.1 | 0.00 | 0.00 | 0.00 | 51 | 1004.5 |
| 20260505101402 | 15 | 171 | 11.3 | 24.1 | 0.00 | 0.00 | 0.00 | 51 | 1004.5 |
| 20260505101324 | 15 | 143 | 9.7 | 24.1 | 0.00 | 0.00 | 0.00 | 51 | 1004.5 |
| 20260505101155 | 15 | 188 | 9.7 | 25.7 | 0.00 | 0.00 | 0.00 | 51 | 1004.5 |
| 20260505101049 | 15 | 152 | 8.0 | 17.7 | 0.00 | 0.00 | 0.00 | 52 | 1004.5 |
| 20260505100921 | 15 | 185 | 11.3 | 17.7 | 0.00 | 0.00 | 0.00 | 52 | 1004.6 |
| 20260505100843 | 15 | 167 | 11.3 | 17.7 | 0.00 | 0.00 | 0.00 | 51 | 1004.6 |
| 20260505100625 | 15 | 148 | 11.3 | 24.1 | 0.00 | 0.00 | 0.00 | 52 | 1004.6 |
| 20260505100549 | 15 | 171 | 11.3 | 24.1 | 0.00 | 0.00 | 0.00 | 52 | 1004.6 |
| 20260505100437 | 15 | 145 | 9.7 | 24.1 | 0.00 | 0.00 | 0.00 | 52 | 1004.6 |
| 20260505100400 | 15 | 206 | 9.7 | 24.1 | 0.00 | 0.00 | 0.00 | 52 | 1004.6 |
| 20260505100317 | 15 | 188 | 11.3 | 25.7 | 0.00 | 0.00 | 0.00 | 52 | 1004.6 |
| 20260505100145 | 15 | 178 | 11.3 | 25.7 | 0.00 | 0.00 | 0.00 | 52 | 1004.6 |
| 20260505100046 | 15 | 178 | 12.9 | 25.7 | 0.00 | 0.00 | 0.00 | 52 | 1004.6 |
| 20260505095923 | 15 | 154 | 14.5 | 30.6 | 0.00 | 0.00 | 0.00 | 52 | 1004.5 |
| 20260505095826 | 15 | 160 | 14.5 | 30.6 | 0.00 | 0.00 | 0.00 | 52 | 1004.5 |
| 20260505095750 | 15 | 185 | 12.9 | 30.6 | 0.00 | 0.00 | 0.00 | 52 | 1004.5 |
| 20260505095712 | 15 | 149 | 12.9 | 30.6 | 0.00 | 0.00 | 0.00 | 52 | 1004.5 |
| 20260505095634 | 15 | 160 | 12.9 | 30.6 | 0.00 | 0.00 | 0.00 | 52 | 1004.5 |
| 20260505095516 | 15 | 169 | 14.5 | 30.6 | 0.00 | 0.00 | 0.00 | 52 | 1004.5 |
| 20260505095443 | 15 | 184 | 17.7 | 35.4 | 0.00 | 0.00 | 0.00 | 52 | 1004.5 |
| 20260505095133 | 15 | 184 | 16.1 | 35.4 | 0.00 | 0.00 | 0.00 | 52 | 1004.5 |
| 20260505095035 | 15 | 136 | 14.5 | 35.4 | 0.00 | 0.00 | 0.00 | 51 | 1004.5 |
| 20260505094938 | 15 | 182 | 11.3 | 35.4 | 0.00 | 0.00 | 0.00 | 51 | 1004.5 |
| 20260505094900 | 15 | 166 | 11.3 | 35.4 | 0.00 | 0.00 | 0.00 | 51 | 1004.5 |
| 20260505094823 | 15 | 191 | 12.9 | 35.4 | 0.00 | 0.00 | 0.00 | 51 | 1004.5 |
| 20260505094625 | 15 | 157 | 14.5 | 35.4 | 0.00 | 0.00 | 0.00 | 51 | 1004.5 |
| 20260505094547 | 15 | 188 | 11.3 | 30.6 | 0.00 | 0.00 | 0.00 | 51 | 1004.5 |
| 20260505094430 | 15 | 166 | 12.9 | 25.7 | 0.00 | 0.00 | 0.00 | 51 | 1004.7 |
| 20260505094359 | 15 | 166 | 11.3 | 25.7 | 0.00 | 0.00 | 0.00 | 51 | 1004.7 |
| 20260505094320 | 15 | 204 | 9.7 | 25.7 | 0.00 | 0.00 | 0.00 | 51 | 1004.6 |
| 20260505094142 | 15 | 159 | 11.3 | 30.6 | 0.00 | 0.00 | 0.00 | 51 | 1004.7 |
| 20260505094105 | 15 | 171 | 14.5 | 30.6 | 0.00 | 0.00 | 0.00 | 51 | 1004.7 |
| 20260505093947 | 15 | 167 | 14.5 | 30.6 | 0.00 | 0.00 | 0.00 | 51 | 1004.7 |
| 20260505093909 | 15 | 178 | 14.5 | 30.6 | 0.00 | 0.00 | 0.00 | 51 | 1004.7 |
| 20260505093729 | 15 | 146 | 16.1 | 30.6 | 0.00 | 0.00 | 0.00 | 51 | 1004.7 |
| 20260505093622 | 15 | 100 | 14.5 | 30.6 | 0.00 | 0.00 | 0.00 | 51 | 1004.7 |
| 20260505093431 | 15 | 217 | 14.5 | 30.6 | 0.00 | 0.00 | 0.00 | 51 | 1004.8 |
| 20260505093346 | 15 | 175 | 16.1 | 30.6 | 0.00 | 0.00 | 0.00 | 51 | 1004.8 |
| 20260505093214 | 15 | 128 | 12.9 | 25.7 | 0.00 | 0.00 | 0.00 | 51 | 1004.8 |
| 20260505093140 | 15 | 181 | 11.3 | 22.5 | 0.00 | 0.00 | 0.00 | 51 | 1004.8 |
| 20260505092923 | 15 | 188 | 11.3 | 22.5 | 0.00 | 0.00 | 0.00 | 51 | 1004.8 |
| 20260505092847 | 15 | 196 | 11.3 | 22.5 | 0.00 | 0.00 | 0.00 | 51 | 1004.8 |
| 20260505092729 | 15 | 186 | 14.5 | 22.5 | 0.00 | 0.00 | 0.00 | 51 | 1004.8 |
| 20260505092652 | 15 | 138 | 12.9 | 20.9 | 0.00 | 0.00 | 0.00 | 52 | 1004.9 |
| 20260505092533 | 15 | 190 | 11.3 | 19.3 | 0.00 | 0.00 | 0.00 | 51 | 1004.8 |
| 20260505092455 | 15 | 140 | 11.3 | 19.3 | 0.00 | 0.00 | 0.00 | 51 | 1004.8 |
| 20260505092416 | 15 | 173 | 11.3 | 19.3 | 0.00 | 0.00 | 0.00 | 51 | 1004.8 |
| 20260505092238 | 15 | 173 | 12.9 | 19.3 | 0.00 | 0.00 | 0.00 | 51 | 1004.8 |
| 20260505092146 | 15 | 178 | 12.9 | 19.3 | 0.00 | 0.00 | 0.00 | 51 | 1004.8 |
| 20260505092050 | 15 | 159 | 11.3 | 20.9 | 0.00 | 0.00 | 0.00 | 51 | 1004.7 |
| 20260505091951 | 15 | 118 | 9.7 | 25.7 | 0.00 | 0.00 | 0.00 | 51 | 1004.8 |
| 20260505091735 | 15 | 134 | 9.7 | 25.7 | 0.00 | 0.00 | 0.00 | 51 | 1004.7 |
| 20260505091636 | 15 | 165 | 9.7 | 25.7 | 0.00 | 0.00 | 0.00 | 51 | 1004.8 |
| 20260505091538 | 15 | 192 | 11.3 | 25.7 | 0.00 | 0.00 | 0.00 | 51 | 1004.7 |
| 20260505091502 | 15 | 140 | 11.3 | 25.7 | 0.00 | 0.00 | 0.00 | 51 | 1004.7 |
| 20260505091424 | 15 | 190 | 11.3 | 25.7 | 0.00 | 0.00 | 0.00 | 51 | 1004.6 |
| 20260505091255 | 15 | 143 | 14.5 | 25.7 | 0.00 | 0.00 | 0.00 | 51 | 1004.7 |
| 20260505091127 | 15 | 147 | 16.1 | 25.7 | 0.00 | 0.00 | 0.00 | 52 | 1004.6 |
| 20260505091055 | 15 | 189 | 14.5 | 24.1 | 0.00 | 0.00 | 0.00 | 52 | 1004.6 |
| 20260505090940 | 15 | 112 | 11.3 | 24.1 | 0.00 | 0.00 | 0.00 | 52 | 1004.6 |
| 20260505090900 | 15 | 104 | 11.3 | 24.1 | 0.00 | 0.00 | 0.00 | 52 | 1004.6 |
| 20260505090723 | 15 | 193 | 14.5 | 24.1 | 0.00 | 0.00 | 0.00 | 52 | 1004.6 |
| 20260505090646 | 15 | 163 | 12.9 | 25.7 | 0.00 | 0.00 | 0.00 | 52 | 1004.6 |
| 20260505090527 | 15 | 165 | 9.7 | 25.7 | 0.00 | 0.00 | 0.00 | 52 | 1004.6 |
| 20260505090449 | 15 | 174 | 9.7 | 25.7 | 0.00 | 0.00 | 0.00 | 52 | 1004.6 |
| 20260505090410 | 15 | 197 | 11.3 | 25.7 | 0.00 | 0.00 | 0.00 | 51 | 1004.6 |
| 20260505090252 | 15 | 180 | 11.3 | 25.7 | 0.00 | 0.00 | 0.00 | 51 | 1004.5 |
| 20260505090215 | 15 | 213 | 11.3 | 25.7 | 0.00 | 0.00 | 0.00 | 51 | 1004.6 |
| 20260505090044 | 15 | 161 | 12.9 | 25.7 | 0.00 | 0.00 | 0.00 | 51 | 1004.5 |
| 20260505085943 | 15 | 159 | 14.5 | 25.7 | 0.00 | 0.00 | 0.00 | 51 | 1004.5 |
| 20260505085827 | 15 | 167 | 12.9 | 27.4 | 0.00 | 0.00 | 0.00 | 51 | 1004.6 |
| 20260505085729 | 15 | 203 | 8.0 | 20.9 | 0.00 | 0.00 | 0.00 | 51 | 1004.6 |
| 20260505085651 | 15 | 170 | 8.0 | 20.9 | 0.00 | 0.00 | 0.00 | 51 | 1004.6 |
| 20260505085523 | 15 | 187 | 12.9 | 22.5 | 0.00 | 0.00 | 0.00 | 51 | 1004.6 |
| 20260505085416 | 15 | 182 | 11.3 | 20.9 | 0.00 | 0.00 | 0.00 | 51 | 1004.6 |
| 20260505085136 | 15 | 153 | 12.9 | 17.7 | 0.00 | 0.00 | 0.00 | 51 | 1004.6 |
| 20260505085030 | 15 | 162 | 9.7 | 16.1 | 0.00 | 0.00 | 0.00 | 51 | 1004.7 |
| 20260505084954 | 15 | 155 | 9.7 | 16.1 | 0.00 | 0.00 | 0.00 | 51 | 1004.7 |
| 20260505084911 | 15 | 157 | 11.3 | 16.1 | 0.00 | 0.00 | 0.00 | 51 | 1004.7 |
| 20260505084834 | 15 | 143 | 12.9 | 16.1 | 0.00 | 0.00 | 0.00 | 51 | 1004.7 |
| 20260505084645 | 15 | 163 | 12.9 | 17.7 | 0.00 | 0.00 | 0.00 | 51 | 1004.7 |
| 20260505084538 | 15 | 178 | 9.7 | 16.1 | 0.00 | 0.00 | 0.00 | 51 | 1004.8 |
| 20260505084501 | 15 | 175 | 9.7 | 16.1 | 0.00 | 0.00 | 0.00 | 51 | 1004.8 |
| 20260505084325 | 15 | 132 | 9.7 | 19.3 | 0.00 | 0.00 | 0.00 | 51 | 1004.9 |
| 20260505084237 | 15 | 155 | 6.4 | 22.5 | 0.00 | 0.00 | 0.00 | 51 | 1004.9 |
| 20260505084140 | 15 | 129 | 6.4 | 22.5 | 0.00 | 0.00 | 0.00 | 51 | 1004.9 |
| 20260505084026 | 15 | 202 | 8.0 | 22.5 | 0.00 | 0.00 | 0.00 | 51 | 1004.9 |
| 20260505083948 | 15 | 158 | 9.7 | 22.5 | 0.00 | 0.00 | 0.00 | 51 | 1004.9 |
| 20260505083825 | 15 | 134 | 11.3 | 22.5 | 0.00 | 0.00 | 0.00 | 51 | 1004.9 |
| 20260505083728 | 15 | 169 | 9.7 | 22.5 | 0.00 | 0.00 | 0.00 | 51 | 1004.9 |
| 20260505083651 | 15 | 197 | 9.7 | 22.5 | 0.00 | 0.00 | 0.00 | 51 | 1004.9 |
| 20260505083624 | 15 | 174 | 11.3 | 22.5 | 0.00 | 0.00 | 0.00 | 51 | 1004.9 |
| 20260505083428 | 15 | 143 | 11.3 | 25.7 | 0.00 | 0.00 | 0.00 | 51 | 1005.0 |
| 20260505083351 | 15 | 174 | 9.7 | 25.7 | 0.00 | 0.00 | 0.00 | 51 | 1005.0 |
| 20260505083256 | 15 | 192 | 8.0 | 17.7 | 0.00 | 0.00 | 0.00 | 51 | 1005.0 |
| 20260505083219 | 15 | 108 | 9.7 | 19.3 | 0.00 | 0.00 | 0.00 | 51 | 1005.0 |
| 20260505083022 | 15 | 142 | 8.0 | 19.3 | 0.00 | 0.00 | 0.00 | 51 | 1004.9 |
| 20260505082924 | 15 | 164 | 11.3 | 19.3 | 0.00 | 0.00 | 0.00 | 51 | 1005.0 |
| 20260505082826 | 15 | 154 | 9.7 | 19.3 | 0.00 | 0.00 | 0.00 | 51 | 1005.0 |
| 20260505082726 | 15 | 108 | 8.0 | 19.3 | 0.00 | 0.00 | 0.00 | 51 | 1004.9 |
| 20260505082530 | 15 | 169 | 9.7 | 19.3 | 0.00 | 0.00 | 0.00 | 51 | 1004.9 |
| 20260505082433 | 15 | 145 | 12.9 | 19.3 | 0.00 | 0.00 | 0.00 | 51 | 1004.9 |
| 20260505082336 | 15 | 161 | 12.9 | 19.3 | 0.00 | 0.00 | 0.00 | 51 | 1005.0 |
| 20260505082257 | 15 | 150 | 12.9 | 19.3 | 0.00 | 0.00 | 0.00 | 51 | 1005.0 |
| 20260505082223 | 15 | 165 | 11.3 | 19.3 | 0.00 | 0.00 | 0.00 | 51 | 1005.0 |
| 20260505082026 | 15 | 130 | 8.0 | 20.9 | 0.00 | 0.00 | 0.00 | 51 | 1005.0 |
| 20260505081929 | 15 | 114 | 9.7 | 20.9 | 0.00 | 0.00 | 0.00 | 51 | 1004.9 |
| 20260505081832 | 15 | 141 | 11.3 | 20.9 | 0.00 | 0.00 | 0.00 | 51 | 1005.0 |
| 20260505081755 | 15 | 122 | 11.3 | 20.9 | 0.00 | 0.00 | 0.00 | 51 | 1005.0 |
| 20260505081716 | 15 | 161 | 11.3 | 20.9 | 0.00 | 0.00 | 0.00 | 51 | 1005.0 |
| 20260505081619 | 15 | 136 | 9.7 | 20.9 | 0.00 | 0.00 | 0.00 | 51 | 1005.0 |
| 20260505081540 | 15 | 152 | 11.3 | 20.9 | 0.00 | 0.00 | 0.00 | 51 | 1005.0 |
| 20260505081412 | 15 | 163 | 14.5 | 20.9 | 0.00 | 0.00 | 0.00 | 51 | 1005.1 |
| 20260505081327 | 15 | 144 | 14.5 | 20.9 | 0.00 | 0.00 | 0.00 | 51 | 1005.0 |
| 20260505081156 | 15 | 200 | 11.3 | 24.1 | 0.00 | 0.00 | 0.00 | 51 | 1005.0 |
| 20260505081102 | 15 | 150 | 12.9 | 24.1 | 0.00 | 0.00 | 0.00 | 51 | 1005.0 |
| 20260505081005 | 15 | 136 | 9.7 | 24.1 | 0.00 | 0.00 | 0.00 | 51 | 1005.0 |
| 20260505080926 | 15 | 184 | 9.7 | 24.1 | 0.00 | 0.00 | 0.00 | 51 | 1004.9 |
| 20260505080728 | 15 | 169 | 11.3 | 25.7 | 0.00 | 0.00 | 0.00 | 51 | 1004.9 |
| 20260505080631 | 15 | 109 | 14.5 | 25.7 | 0.00 | 0.00 | 0.00 | 51 | 1004.9 |
| 20260505080514 | 15 | 137 | 14.5 | 27.4 | 0.00 | 0.00 | 0.00 | 51 | 1005.0 |
| 20260505080448 | 15 | 163 | 14.5 | 27.4 | 0.00 | 0.00 | 0.00 | 51 | 1005.0 |
| 20260505080412 | 15 | 159 | 12.9 | 25.7 | 0.00 | 0.00 | 0.00 | 51 | 1004.9 |
| 20260505080234 | 15 | 150 | 12.9 | 25.7 | 0.00 | 0.00 | 0.00 | 51 | 1004.9 |
| 20260505080200 | 15 | 155 | 14.5 | 25.7 | 0.00 | 0.00 | 0.00 | 51 | 1004.9 |
| 20260505080042 | 15 | 227 | 12.9 | 25.7 | 0.00 | 0.00 | 0.00 | 51 | 1004.9 |
| 20260505075941 | 15 | 186 | 9.7 | 19.3 | 0.00 | 0.00 | 0.00 | 51 | 1004.8 |
| 20260505075825 | 15 | 158 | 9.7 | 19.3 | 0.00 | 0.00 | 0.00 | 51 | 1004.8 |
| 20260505075736 | 15 | 109 | 9.7 | 19.3 | 0.00 | 0.00 | 0.00 | 51 | 1004.8 |
| 20260505075618 | 15 | 151 | 9.7 | 19.3 | 0.00 | 0.00 | 0.00 | 51 | 1004.8 |
| 20260505075540 | 15 | 161 | 11.3 | 19.3 | 0.00 | 0.00 | 0.00 | 51 | 1004.8 |
| 20260505075412 | 15 | 154 | 11.3 | 22.5 | 0.00 | 0.00 | 0.00 | 51 | 1004.8 |
| 20260505075327 | 15 | 159 | 9.7 | 22.5 | 0.00 | 0.00 | 0.00 | 51 | 1004.8 |
| 20260505075157 | 15 | 206 | 6.4 | 22.5 | 0.00 | 0.00 | 0.00 | 51 | 1004.8 |
| 20260505075043 | 15 | 144 | 8.0 | 22.5 | 0.00 | 0.00 | 0.00 | 51 | 1004.8 |
| 20260505074945 | 15 | 174 | 8.0 | 22.5 | 0.00 | 0.00 | 0.00 | 51 | 1004.9 |
| 20260505074907 | 15 | 166 | 8.0 | 22.5 | 0.00 | 0.00 | 0.00 | 51 | 1004.9 |
| 20260505074737 | 15 | 166 | 11.3 | 22.5 | 0.00 | 0.00 | 0.00 | 51 | 1004.9 |
| 20260505074619 | 15 | 182 | 12.9 | 22.5 | 0.00 | 0.00 | 0.00 | 51 | 1004.9 |
| 20260505074541 | 15 | 191 | 11.3 | 22.5 | 0.00 | 0.00 | 0.00 | 51 | 1004.9 |
| 20260505074325 | 15 | 178 | 8.0 | 20.9 | 0.00 | 0.00 | 0.00 | 51 | 1004.8 |
| 20260505074227 | 15 | 163 | 9.7 | 20.9 | 0.00 | 0.00 | 0.00 | 51 | 1004.8 |
| 20260505074130 | 15 | 158 | 12.9 | 20.9 | 0.00 | 0.00 | 0.00 | 51 | 1004.8 |
| 20260505074054 | 15 | 157 | 14.5 | 20.9 | 0.00 | 0.00 | 0.00 | 51 | 1004.8 |
| 20260505074015 | 15 | 143 | 14.5 | 22.5 | 0.00 | 0.00 | 0.00 | 51 | 1004.9 |
| 20260505073829 | 15 | 117 | 11.3 | 16.1 | 0.00 | 0.00 | 0.00 | 51 | 1004.8 |
| 20260505073745 | 15 | 152 | 11.3 | 16.1 | 0.00 | 0.00 | 0.00 | 51 | 1004.8 |
| 20260505073616 | 15 | 134 | 11.3 | 19.3 | 0.00 | 0.00 | 0.00 | 51 | 1004.8 |
| 20260505073537 | 15 | 149 | 9.7 | 19.3 | 0.00 | 0.00 | 0.00 | 51 | 1004.9 |
| 20260505073342 | 15 | 157 | 9.7 | 19.3 | 0.00 | 0.00 | 0.00 | 51 | 1004.8 |
| 20260505073304 | 15 | 197 | 9.7 | 19.3 | 0.00 | 0.00 | 0.00 | 51 | 1004.8 |
| 20260505073208 | 15 | 143 | 9.7 | 19.3 | 0.00 | 0.00 | 0.00 | 51 | 1004.8 |
| 20260505073130 | 15 | 189 | 11.3 | 19.3 | 0.00 | 0.00 | 0.00 | 51 | 1004.9 |
| 20260505072934 | 15 | 150 | 12.9 | 19.3 | 0.00 | 0.00 | 0.00 | 50 | 1004.9 |
| 20260505072837 | 15 | 143 | 12.9 | 20.9 | 0.00 | 0.00 | 0.00 | 51 | 1005.0 |
| 20260505072724 | 15 | 207 | 11.3 | 19.3 | 0.00 | 0.00 | 0.00 | 51 | 1005.0 |
| 20260505072645 | 15 | 167 | 9.7 | 19.3 | 0.00 | 0.00 | 0.00 | 51 | 1005.0 |
| 20260505072517 | 15 | 188 | 9.7 | 19.3 | 0.00 | 0.00 | 0.00 | 50 | 1005.0 |
| 20260505072434 | 15 | 138 | 11.3 | 19.3 | 0.00 | 0.00 | 0.00 | 50 | 1005.0 |
| 20260505072305 | 15 | 165 | 11.3 | 19.3 | 0.00 | 0.00 | 0.00 | 50 | 1005.0 |
| 20260505072226 | 15 | 172 | 11.3 | 19.3 | 0.00 | 0.00 | 0.00 | 51 | 1004.9 |
| 20260505072029 | 15 | 130 | 9.7 | 17.7 | 0.00 | 0.00 | 0.00 | 50 | 1005.0 |
| 20260505071951 | 15 | 189 | 11.3 | 17.7 | 0.00 | 0.00 | 0.00 | 50 | 1005.0 |
| 20260505071834 | 15 | 148 | 11.3 | 17.7 | 0.00 | 0.00 | 0.00 | 51 | 1005.0 |
| 20260505071757 | 15 | 186 | 11.3 | 17.7 | 0.00 | 0.00 | 0.00 | 51 | 1005.0 |
| 20260505071716 | 15 | 175 | 11.3 | 17.7 | 0.00 | 0.00 | 0.00 | 51 | 1005.0 |
| 20260505071545 | 15 | 163 | 12.9 | 17.7 | 0.00 | 0.00 | 0.00 | 50 | 1005.0 |
| 20260505071445 | 15 | 204 | 11.3 | 17.7 | 0.00 | 0.00 | 0.00 | 50 | 1005.0 |
| 20260505071408 | 15 | 179 | 11.3 | 20.9 | 0.00 | 0.00 | 0.00 | 50 | 1005.1 |
| 20260505071311 | 15 | 165 | 9.7 | 16.1 | 0.00 | 0.00 | 0.00 | 51 | 1005.1 |
| 20260505071234 | 15 | 232 | 9.7 | 16.1 | 0.00 | 0.00 | 0.00 | 50 | 1005.1 |
| 20260505071102 | 15 | 189 | 9.7 | 17.7 | 0.00 | 0.00 | 0.00 | 50 | 1005.1 |
| 20260505070936 | 15 | 160 | 8.0 | 17.7 | 0.00 | 0.00 | 0.00 | 50 | 1005.0 |
| 20260505070859 | 15 | 165 | 8.0 | 17.7 | 0.00 | 0.00 | 0.00 | 50 | 1005.0 |
| 20260505070803 | 15 | 201 | 8.0 | 17.7 | 0.00 | 0.00 | 0.00 | 51 | 1005.0 |
| 20260505070704 | 15 | 191 | 9.7 | 17.7 | 0.00 | 0.00 | 0.00 | 51 | 1005.0 |
| 20260505070532 | 15 | 141 | 6.4 | 17.7 | 0.00 | 0.00 | 0.00 | 50 | 1005.0 |
| 20260505070430 | 15 | 184 | 8.0 | 17.7 | 0.00 | 0.00 | 0.00 | 50 | 1005.0 |
| 20260505070239 | 15 | 155 | 9.7 | 17.7 | 0.00 | 0.00 | 0.00 | 50 | 1005.0 |
| 20260505070155 | 15 | 207 | 11.3 | 17.7 | 0.00 | 0.00 | 0.00 | 50 | 1005.0 |
| 20260505070025 | 15 | 159 | 9.7 | 17.7 | 0.00 | 0.00 | 0.00 | 50 | 1005.1 |
| 20260505065926 | 15 | 141 | 8.0 | 17.7 | 0.00 | 0.00 | 0.00 | 50 | 1005.0 |
| 20260505065730 | 15 | 133 | 8.0 | 17.7 | 0.00 | 0.00 | 0.00 | 51 | 1005.0 |
| 20260505065634 | 15 | 170 | 8.0 | 17.7 | 0.00 | 0.00 | 0.00 | 50 | 1005.0 |
| 20260505065537 | 15 | 111 | 9.7 | 17.7 | 0.00 | 0.00 | 0.00 | 50 | 1005.0 |
| 20260505065459 | 15 | 151 | 11.3 | 17.7 | 0.00 | 0.00 | 0.00 | 50 | 1005.0 |
| 20260505065330 | 15 | 146 | 8.0 | 14.5 | 0.00 | 0.00 | 0.00 | 50 | 1005.0 |
| 20260505065226 | 15 | 117 | 8.0 | 14.5 | 0.00 | 0.00 | 0.00 | 50 | 1005.1 |
| 20260505065038 | 15 | 140 | 8.0 | 14.5 | 0.00 | 0.00 | 0.00 | 50 | 1005.1 |
| 20260505064952 | 15 | 137 | 8.0 | 14.5 | 0.00 | 0.00 | 0.00 | 50 | 1005.1 |
| 20260505064800 | 15 | 159 | 8.0 | 14.5 | 0.00 | 0.00 | 0.00 | 50 | 1005.2 |
| 20260505064700 | 15 | 142 | 9.7 | 14.5 | 0.00 | 0.00 | 0.00 | 50 | 1005.2 |
| 20260505064605 | 15 | 153 | 8.0 | 14.5 | 0.00 | 0.00 | 0.00 | 50 | 1005.2 |
| 20260505064528 | 15 | 161 | 8.0 | 14.5 | 0.00 | 0.00 | 0.00 | 50 | 1005.2 |
| 20260505064357 | 15 | 147 | 6.4 | 14.5 | 0.00 | 0.00 | 0.00 | 50 | 1005.2 |
| 20260505064259 | 15 | 150 | 8.0 | 17.7 | 0.00 | 0.00 | 0.00 | 50 | 1005.2 |
| 20260505064200 | 15 | 133 | 9.7 | 17.7 | 0.00 | 0.00 | 0.00 | 50 | 1005.1 |
| 20260505064122 | 15 | 185 | 9.7 | 17.7 | 0.00 | 0.00 | 0.00 | 50 | 1005.1 |
| 20260505063930 | 15 | 159 | 9.7 | 17.7 | 0.00 | 0.00 | 0.00 | 50 | 1005.1 |
| 20260505063833 | 15 | 162 | 11.3 | 17.7 | 0.00 | 0.00 | 0.00 | 50 | 1005.1 |
| 20260505063735 | 15 | 181 | 9.7 | 17.7 | 0.00 | 0.00 | 0.00 | 50 | 1005.0 |
| 20260505063659 | 15 | 177 | 9.7 | 17.7 | 0.00 | 0.00 | 0.00 | 50 | 1005.0 |
| 20260505063619 | 15 | 163 | 11.3 | 17.7 | 0.00 | 0.00 | 0.00 | 50 | 1005.1 |
| 20260505063500 | 15 | 154 | 11.3 | 17.7 | 0.00 | 0.00 | 0.00 | 50 | 1005.0 |
| 20260505063342 | 15 | 220 | 9.7 | 16.1 | 0.00 | 0.00 | 0.00 | 50 | 1005.0 |
| 20260505063223 | 15 | 191 | 8.0 | 16.1 | 0.00 | 0.00 | 0.00 | 50 | 1005.0 |
| 20260505063145 | 15 | 168 | 8.0 | 16.1 | 0.00 | 0.00 | 0.00 | 50 | 1005.0 |
| 20260505063025 | 15 | 136 | 9.7 | 16.1 | 0.00 | 0.00 | 0.00 | 50 | 1005.0 |
| 20260505062929 | 15 | 194 | 9.7 | 16.1 | 0.00 | 0.00 | 0.00 | 50 | 1005.0 |
| 20260505062853 | 15 | 155 | 9.7 | 16.1 | 0.00 | 0.00 | 0.00 | 50 | 1005.0 |
| 20260505062816 | 15 | 159 | 11.3 | 16.1 | 0.00 | 0.00 | 0.00 | 50 | 1005.0 |
| 20260505062638 | 15 | 129 | 12.9 | 17.7 | 0.00 | 0.00 | 0.00 | 50 | 1004.9 |
| 20260505062600 | 15 | 167 | 12.9 | 19.3 | 0.00 | 0.00 | 0.00 | 50 | 1004.9 |
| 20260505062515 | 15 | 146 | 9.7 | 17.7 | 0.00 | 0.00 | 0.00 | 50 | 1004.9 |
| 20260505062324 | 15 | 156 | 8.0 | 19.3 | 0.00 | 0.00 | 0.00 | 50 | 1005.0 |
| 20260505062248 | 15 | 158 | 8.0 | 19.3 | 0.00 | 0.00 | 0.00 | 50 | 1005.0 |
| 20260505062126 | 15 | 136 | 8.0 | 19.3 | 0.00 | 0.00 | 0.00 | 50 | 1005.0 |
| 20260505062032 | 15 | 176 | 9.7 | 19.3 | 0.00 | 0.00 | 0.00 | 50 | 1005.0 |
| 20260505061953 | 15 | 129 | 8.0 | 19.3 | 0.00 | 0.00 | 0.00 | 50 | 1004.9 |
| 20260505061855 | 15 | 106 | 8.0 | 19.3 | 0.00 | 0.00 | 0.00 | 50 | 1004.9 |
| 20260505061758 | 15 | 151 | 11.3 | 19.3 | 0.00 | 0.00 | 0.00 | 50 | 1004.9 |
| 20260505061639 | 15 | 176 | 12.9 | 19.3 | 0.00 | 0.00 | 0.00 | 50 | 1004.9 |
| 20260505061543 | 15 | 173 | 9.7 | 20.9 | 0.00 | 0.00 | 0.00 | 50 | 1004.9 |
| 20260505061505 | 15 | 171 | 8.0 | 17.7 | 0.00 | 0.00 | 0.00 | 50 | 1004.9 |
| 20260505061313 | 15 | 182 | 9.7 | 17.7 | 0.00 | 0.00 | 0.00 | 50 | 1004.8 |
| 20260505061228 | 15 | 148 | 11.3 | 17.7 | 0.00 | 0.00 | 0.00 | 49 | 1004.8 |
| 20260505061100 | 15 | 163 | 8.0 | 20.9 | 0.00 | 0.00 | 0.00 | 49 | 1004.8 |
| 20260505061005 | 15 | 167 | 11.3 | 20.9 | 0.00 | 0.00 | 0.00 | 49 | 1004.8 |
| 20260505060836 | 15 | 163 | 11.3 | 20.9 | 0.00 | 0.00 | 0.00 | 49 | 1004.8 |
| 20260505060730 | 15 | 131 | 12.9 | 20.9 | 0.00 | 0.00 | 0.00 | 49 | 1004.8 |
| 20260505060540 | 15 | 186 | 12.9 | 20.9 | 0.00 | 0.00 | 0.00 | 49 | 1004.9 |
| 20260505060435 | 15 | 132 | 11.3 | 20.9 | 0.00 | 0.00 | 0.00 | 49 | 1004.8 |
| 20260505060332 | 15 | 163 | 11.3 | 20.9 | 0.00 | 0.00 | 0.00 | 49 | 1004.8 |
| 20260505060234 | 15 | 137 | 11.3 | 20.9 | 0.00 | 0.00 | 0.00 | 49 | 1004.7 |
| 20260505060137 | 15 | 198 | 9.7 | 19.3 | 0.00 | 0.00 | 0.00 | 49 | 1004.8 |
| 20260505060059 | 15 | 171 | 8.0 | 19.3 | 0.00 | 0.00 | 0.00 | 49 | 1004.8 |
| 20260505055922 | 15 | 134 | 11.3 | 19.3 | 0.00 | 0.00 | 0.00 | 49 | 1004.8 |
| 20260505055837 | 15 | 199 | 11.3 | 19.3 | 0.00 | 0.00 | 0.00 | 49 | 1004.8 |
| 20260505055645 | 15 | 118 | 11.3 | 19.3 | 0.00 | 0.00 | 0.00 | 49 | 1004.8 |
| 20260505055546 | 15 | 191 | 11.3 | 17.7 | 0.00 | 0.00 | 0.00 | 49 | 1004.8 |
| 20260505055429 | 15 | 119 | 9.7 | 16.1 | 0.00 | 0.00 | 0.00 | 49 | 1004.9 |
| 20260505055352 | 15 | 181 | 8.0 | 16.1 | 0.00 | 0.00 | 0.00 | 49 | 1004.9 |
| 20260505055315 | 15 | 184 | 8.0 | 16.1 | 0.00 | 0.00 | 0.00 | 49 | 1004.8 |
| 20260505055158 | 15 | 156 | 8.0 | 16.1 | 0.00 | 0.00 | 0.00 | 49 | 1004.8 |
| 20260505055120 | 15 | 191 | 8.0 | 17.7 | 0.00 | 0.00 | 0.00 | 49 | 1004.9 |
| 20260505054923 | 15 | 141 | 9.7 | 17.7 | 0.00 | 0.00 | 0.00 | 49 | 1004.8 |
| 20260505054831 | 15 | 169 | 9.7 | 19.3 | 0.00 | 0.00 | 0.00 | 49 | 1004.8 |
| 20260505054723 | 15 | 107 | 9.7 | 19.3 | 0.00 | 0.00 | 0.00 | 49 | 1004.8 |
| 20260505054645 | 15 | 141 | 11.3 | 19.3 | 0.00 | 0.00 | 0.00 | 49 | 1004.8 |
| 20260505054542 | 15 | 164 | 9.7 | 19.3 | 0.00 | 0.00 | 0.00 | 49 | 1004.9 |
| 20260505054423 | 15 | 163 | 8.0 | 22.5 | 0.00 | 0.00 | 0.00 | 49 | 1004.8 |
| 20260505054348 | 15 | 235 | 8.0 | 22.5 | 0.00 | 0.00 | 0.00 | 49 | 1004.8 |
| 20260505054309 | 15 | 168 | 8.0 | 22.5 | 0.00 | 0.00 | 0.00 | 49 | 1004.8 |
| 20260505054151 | 15 | 150 | 11.3 | 22.5 | 0.00 | 0.00 | 0.00 | 49 | 1004.8 |
| 20260505054114 | 15 | 155 | 9.7 | 22.5 | 0.00 | 0.00 | 0.00 | 49 | 1004.8 |
| 20260505053839 | 15 | 158 | 8.0 | 22.5 | 0.00 | 0.00 | 0.00 | 49 | 1004.8 |
| 20260505053713 | 15 | 193 | 8.0 | 22.5 | 0.00 | 0.00 | 0.00 | 49 | 1004.8 |
| 20260505053626 | 15 | 199 | 11.3 | 22.5 | 0.00 | 0.00 | 0.00 | 49 | 1004.8 |
| 20260505053527 | 15 | 102 | 9.7 | 22.5 | 0.00 | 0.00 | 0.00 | 49 | 1004.8 |
| 20260505053357 | 15 | 142 | 8.0 | 17.7 | 0.00 | 0.00 | 0.00 | 49 | 1004.8 |
| 20260505053229 | 15 | 167 | 9.7 | 17.7 | 0.00 | 0.00 | 0.00 | 49 | 1004.8 |
| 20260505053151 | 15 | 146 | 9.7 | 17.7 | 0.00 | 0.00 | 0.00 | 49 | 1004.8 |
| 20260505053053 | 15 | 186 | 8.0 | 17.7 | 0.00 | 0.00 | 0.00 | 49 | 1004.8 |
| 20260505052953 | 15 | 150 | 9.7 | 17.7 | 0.00 | 0.00 | 0.00 | 49 | 1004.8 |
| 20260505052739 | 15 | 119 | 9.7 | 24.1 | 0.00 | 0.00 | 0.00 | 49 | 1004.8 |
| 20260505052642 | 15 | 198 | 9.7 | 24.1 | 0.00 | 0.00 | 0.00 | 49 | 1004.8 |
| 20260505052524 | 15 | 147 | 8.0 | 24.1 | 0.00 | 0.00 | 0.00 | 49 | 1004.9 |
| 20260505052448 | 15 | 182 | 6.4 | 24.1 | 0.00 | 0.00 | 0.00 | 49 | 1004.9 |
| 20260505052323 | 15 | 196 | 6.4 | 24.1 | 0.00 | 0.00 | 0.00 | 49 | 1004.9 |
| 20260505052226 | 15 | 212 | 9.7 | 24.1 | 0.00 | 0.00 | 0.00 | 49 | 1004.9 |
| 20260505052148 | 15 | 182 | 12.9 | 24.1 | 0.00 | 0.00 | 0.00 | 49 | 1004.9 |
| 20260505052109 | 15 | 166 | 14.5 | 24.1 | 0.00 | 0.00 | 0.00 | 49 | 1004.8 |
| 20260505052012 | 15 | 182 | 12.9 | 24.1 | 0.00 | 0.00 | 0.00 | 49 | 1004.9 |
| 20260505051936 | 15 | 165 | 9.7 | 24.1 | 0.00 | 0.00 | 0.00 | 49 | 1004.9 |
| 20260505051807 | 15 | 196 | 8.0 | 24.1 | 0.00 | 0.00 | 0.00 | 49 | 1004.9 |
| 20260505051721 | 15 | 184 | 6.4 | 24.1 | 0.00 | 0.00 | 0.00 | 49 | 1004.9 |
| 20260505051531 | 15 | 184 | 8.0 | 24.1 | 0.00 | 0.00 | 0.00 | 49 | 1004.8 |
| 20260505051445 | 15 | 152 | 9.7 | 24.1 | 0.00 | 0.00 | 0.00 | 49 | 1004.8 |
| 20260505051316 | 15 | 167 | 11.3 | 24.1 | 0.00 | 0.00 | 0.00 | 49 | 1004.9 |
| 20260505051237 | 15 | 157 | 11.3 | 24.1 | 0.00 | 0.00 | 0.00 | 49 | 1004.9 |
| 20260505051109 | 15 | 169 | 8.0 | 24.1 | 0.00 | 0.00 | 0.00 | 49 | 1004.9 |
| 20260505051023 | 15 | 161 | 8.0 | 16.1 | 0.00 | 0.00 | 0.00 | 49 | 1004.9 |
| 20260505050834 | 15 | 214 | 8.0 | 16.1 | 0.00 | 0.00 | 0.00 | 49 | 1004.9 |
| 20260505050733 | 15 | 163 | 6.4 | 16.1 | 0.00 | 0.00 | 0.00 | 49 | 1004.9 |
| 20260505050655 | 15 | 167 | 6.4 | 16.1 | 0.00 | 0.00 | 0.00 | 49 | 1004.9 |
| 20260505050558 | 15 | 163 | 11.3 | 16.1 | 0.00 | 0.00 | 0.00 | 49 | 1004.9 |
| 20260505050437 | 15 | 167 | 8.0 | 16.1 | 0.00 | 0.00 | 0.00 | 49 | 1004.9 |
| 20260505050340 | 15 | 146 | 8.0 | 16.1 | 0.00 | 0.00 | 0.00 | 50 | 1004.9 |
| 20260505050301 | 15 | 125 | 9.7 | 16.1 | 0.00 | 0.00 | 0.00 | 49 | 1005.0 |
| 20260505050123 | 15 | 173 | 9.7 | 16.1 | 0.00 | 0.00 | 0.00 | 50 | 1004.9 |
| 20260505041732 | 13 | 159 | 4.8 | 9.7 | 0.00 | 0.00 | 0.00 | 49 | 1004.8 |
| 20260505041635 | 13 | 157 | 6.4 | 9.7 | 0.00 | 0.00 | 0.00 | 49 | 1004.9 |
| 20260505041558 | 13 | 196 | 6.4 | 9.7 | 0.00 | 0.00 | 0.00 | 49 | 1004.9 |
| 20260505041501 | 13 | 139 | 6.4 | 9.7 | 0.00 | 0.00 | 0.00 | 49 | 1004.9 |
| 20260505041424 | 14 | 155 | 6.4 | 9.7 | 0.00 | 0.00 | 0.00 | 49 | 1004.9 |
| 20260505041227 | 14 | 147 | 4.8 | 12.9 | 0.00 | 0.00 | 0.00 | 49 | 1004.9 |
| 20260505041128 | 14 | 115 | 6.4 | 12.9 | 0.00 | 0.00 | 0.00 | 49 | 1004.9 |
| 20260505041031 | 14 | 121 | 6.4 | 12.9 | 0.00 | 0.00 | 0.00 | 49 | 1004.8 |
| 20260505040958 | 14 | 153 | 6.4 | 12.9 | 0.00 | 0.00 | 0.00 | 49 | 1004.8 |
| 20260505040920 | 14 | 173 | 6.4 | 12.9 | 0.00 | 0.00 | 0.00 | 49 | 1004.8 |
| 20260505040722 | 14 | 117 | 4.8 | 12.9 | 0.00 | 0.00 | 0.00 | 49 | 1004.8 |
| 20260505040645 | 14 | 126 | 6.4 | 12.9 | 0.00 | 0.00 | 0.00 | 49 | 1004.8 |
| 20260505040527 | 14 | 115 | 8.0 | 12.9 | 0.00 | 0.00 | 0.00 | 48 | 1004.9 |
| 20260505040451 | 14 | 167 | 6.4 | 9.7 | 0.00 | 0.00 | 0.00 | 48 | 1004.9 |
| 20260505040405 | 14 | 167 | 6.4 | 9.7 | 0.00 | 0.00 | 0.00 | 48 | 1004.8 |
| 20260505040245 | 14 | 180 | 6.4 | 11.3 | 0.00 | 0.00 | 0.00 | 48 | 1004.9 |
| 20260505040146 | 14 | 188 | 4.8 | 9.7 | 0.00 | 0.00 | 0.00 | 48 | 1004.9 |
| 20260505040025 | 13 | 165 | 4.8 | 11.3 | 0.00 | 0.00 | 0.00 | 48 | 1004.8 |
| 20260505035930 | 13 | 187 | 4.8 | 11.3 | 0.00 | 0.00 | 0.00 | 48 | 1004.8 |
| 20260505035831 | 13 | 186 | 3.2 | 11.3 | 0.00 | 0.00 | 0.00 | 48 | 1004.8 |
| 20260505035754 | 13 | 136 | 4.8 | 11.3 | 0.00 | 0.00 | 0.00 | 48 | 1004.8 |
| 20260505035655 | 13 | 175 | 4.8 | 11.3 | 0.00 | 0.00 | 0.00 | 47 | 1004.8 |
| 20260505035537 | 13 | 167 | 3.2 | 11.3 | 0.00 | 0.00 | 0.00 | 47 | 1004.8 |
| 20260505035441 | 13 | 189 | 4.8 | 11.3 | 0.00 | 0.00 | 0.00 | 47 | 1004.8 |